HIGHLAND LAKE: From 07/30/2020 00:00 to 09/30/2020 00:00

Date LAKE ELEVATION [FT] OBSERVED RELEASE PRECIPITATION INCREMENT [IN] PRECIPITATION TOTAL [IN] AIR TEMPERATURE [F] RELATIVE HUMIDITY [%]
09/28/2020 15:00 1294.43 0.0 0.00 -- 75.2 100.0
09/28/2020 14:00 1294.42 0.0 0.00 -- 71.8 100.0
09/28/2020 13:00 1294.42 0.0 0.00 -- 69.0 100.0
09/28/2020 12:00 1294.44 0.0 0.00 -- 68.1 100.0
09/28/2020 11:00 1294.42 0.0 0.00 -- 66.4 100.0
09/28/2020 10:00 1294.45 0.0 0.00 -- 63.9 100.0
09/28/2020 09:00 1294.45 0.0 0.00 -- 63.7 100.0
09/28/2020 08:00 1294.46 0.0 0.00 -- 63.5 100.0
09/28/2020 07:00 1294.46 0.0 0.01 -- 64.0 100.0
09/28/2020 06:00 1294.46 0.0 0.00 -- 64.4 100.0
09/28/2020 05:00 1294.45 0.0 0.00 -- 65.1 100.0
09/28/2020 04:00 1294.46 0.0 0.00 -- 64.8 100.0
09/28/2020 03:00 1294.46 0.0 0.01 -- 65.0 100.0
09/28/2020 02:00 1294.46 0.0 0.00 -- 65.6 100.0
09/28/2020 01:00 1294.46 0.0 0.00 -- 66.0 100.0
09/28/2020 00:00 1294.45 0.0 0.00 -- 66.4 100.0
09/27/2020 23:00 1294.43 0.0 0.00 -- 66.5 100.0
09/27/2020 22:00 1294.46 0.0 0.00 -- 65.5 100.0
09/27/2020 21:00 1294.46 0.0 0.00 -- 65.3 100.0
09/27/2020 20:00 1294.45 0.0 0.00 -- 66.1 100.0
09/27/2020 19:00 1294.45 0.0 0.00 -- 67.9 100.0
09/27/2020 18:00 1294.44 0.0 0.00 -- 69.8 100.0
09/27/2020 17:00 1294.43 0.0 0.00 -- 70.6 100.0
09/27/2020 16:00 1294.43 0.0 0.00 -- 69.5 100.0
09/27/2020 15:00 1294.45 0.0 0.00 -- 69.6 100.0
09/27/2020 14:00 1294.43 0.0 0.00 -- 68.3 100.0
09/27/2020 13:00 1294.44 0.0 0.00 -- 68.0 100.0
09/27/2020 12:00 1294.44 0.0 0.00 -- 66.2 100.0
09/27/2020 11:00 1294.44 0.0 0.00 -- 65.1 100.0
09/27/2020 10:00 1294.44 0.0 0.00 -- 63.7 100.0
09/27/2020 09:00 1294.44 0.0 0.00 -- 62.2 100.0
09/27/2020 08:00 1294.45 0.0 0.00 -- 61.3 100.0
09/27/2020 07:00 1294.46 0.0 0.00 -- 61.3 100.0
09/27/2020 06:00 1294.45 0.0 0.00 -- 61.9 100.0
09/27/2020 05:00 1294.45 0.0 0.00 -- 62.4 100.0
09/27/2020 04:00 1294.44 0.0 0.00 -- 62.6 100.0
09/27/2020 03:00 1294.43 0.0 0.00 -- 62.4 100.0
09/27/2020 02:00 1294.45 0.0 0.00 -- 60.5 100.0
09/27/2020 01:00 1294.45 0.0 0.00 -- 60.1 100.0
09/27/2020 00:00 1294.44 0.0 0.00 0.00 62.0 100.0
09/26/2020 23:00 1294.44 0.0 0.00 -- 64.7 100.0
09/26/2020 22:00 1294.45 0.0 0.00 -- 64.2 100.0
09/26/2020 21:00 1294.46 0.0 0.00 -- 64.7 100.0
09/26/2020 20:00 1294.45 0.0 0.00 -- 66.3 100.0
09/26/2020 19:00 1294.45 0.0 0.00 -- 67.9 100.0
09/26/2020 18:00 1294.44 0.0 0.00 -- 69.8 100.0
09/26/2020 17:00 1294.45 0.0 0.00 -- 72.5 100.0
09/26/2020 16:00 1294.44 0.0 0.00 -- 72.6 100.0
09/26/2020 15:00 1294.43 0.0 0.00 -- 69.4 100.0
09/26/2020 14:00 1294.45 0.0 0.00 -- 67.2 100.0
09/26/2020 13:00 1294.45 0.0 0.00 -- 64.4 100.0
09/26/2020 12:00 1294.45 0.0 0.00 -- 60.3 100.0
09/26/2020 11:00 1294.45 0.0 0.00 -- 57.4 100.0
09/26/2020 10:00 1294.45 0.0 0.00 -- 55.3 100.0
09/26/2020 09:00 1294.45 0.0 0.00 -- 52.9 100.0
09/26/2020 08:00 1294.46 0.0 0.00 -- 48.5 100.0
09/26/2020 07:00 1294.46 0.0 0.00 -- 48.1 100.0
09/26/2020 06:00 1294.46 0.0 0.00 -- 48.4 100.0
09/26/2020 05:00 1294.46 0.0 0.00 -- 49.3 100.0
09/26/2020 04:00 1294.46 0.0 0.00 -- 50.3 100.0
09/26/2020 03:00 1294.47 0.0 0.00 -- 51.4 100.0
09/26/2020 02:00 1294.46 0.0 0.00 -- 52.9 100.0
09/26/2020 01:00 1294.47 0.0 0.00 -- 54.6 100.0
09/26/2020 00:00 1294.47 0.0 0.00 0.00 56.5 100.0
09/25/2020 23:00 1294.46 0.0 0.00 -- 57.3 100.0
09/25/2020 22:00 1294.46 0.0 0.00 -- 58.8 100.0
09/25/2020 21:00 1294.46 0.0 0.00 -- 60.6 100.0
09/25/2020 20:00 1294.46 0.0 0.00 -- 63.8 100.0
09/25/2020 19:00 1294.46 0.0 0.00 -- 69.0 100.0
09/25/2020 18:00 1294.45 0.0 0.00 -- 73.2 100.0
09/25/2020 17:00 1294.46 0.0 0.00 -- 73.2 100.0
09/25/2020 16:00 1294.45 0.0 0.00 -- 75.7 100.0
09/25/2020 15:00 1294.46 0.0 0.00 -- 75.4 100.0
09/25/2020 14:00 1294.46 0.0 0.00 -- 73.2 100.0
09/25/2020 13:00 1294.46 0.0 0.00 -- 68.3 100.0
09/25/2020 12:00 1294.46 0.0 0.00 -- 65.7 100.0
09/25/2020 11:00 1294.47 0.0 0.00 -- 61.8 100.0
09/25/2020 10:00 1294.47 0.0 0.00 -- 54.5 100.0
09/25/2020 09:00 1294.47 0.0 0.00 -- 49.4 100.0
09/25/2020 08:00 1294.46 0.0 0.00 -- 47.5 100.0
09/25/2020 07:00 1294.46 0.0 0.00 -- 48.0 100.0
09/25/2020 06:00 1294.46 0.0 0.00 -- 48.8 100.0
09/25/2020 05:00 1294.47 0.0 0.00 -- 50.0 100.0
09/25/2020 04:00 1294.47 0.0 0.00 -- 51.1 100.0
09/25/2020 03:00 1294.47 0.0 0.00 -- 51.9 100.0
09/25/2020 02:00 1294.47 0.0 0.00 -- 53.8 100.0
09/25/2020 01:00 1294.46 0.0 0.00 -- 55.3 100.0
09/25/2020 00:00 1294.46 0.0 0.00 0.00 56.1 100.0
09/24/2020 23:00 1294.47 0.0 0.00 -- 56.5 100.0
09/24/2020 22:00 1294.47 0.0 0.00 -- 58.2 100.0
09/24/2020 21:00 1294.46 0.0 0.00 -- 60.2 100.0
09/24/2020 20:00 1294.46 0.0 0.00 -- 63.6 100.0
09/24/2020 19:00 1294.45 0.0 0.00 -- 68.1 100.0
09/24/2020 18:00 1294.45 0.0 0.00 -- 70.6 100.0
09/24/2020 17:00 1294.46 0.0 0.00 -- 72.2 100.0
09/24/2020 16:00 1294.44 0.0 0.00 -- 72.5 100.0
09/24/2020 15:00 1294.45 0.0 0.00 -- 69.9 100.0
09/24/2020 14:00 1294.46 0.0 0.00 -- 70.2 100.0
09/24/2020 13:00 1294.45 0.0 0.00 -- 66.9 100.0
09/24/2020 12:00 1294.46 0.0 0.00 -- 65.3 100.0
09/24/2020 11:00 1294.45 0.0 0.00 -- 59.3 100.0
09/24/2020 10:00 1294.46 0.0 0.00 -- 55.3 100.0
09/24/2020 09:00 1294.46 0.0 0.00 -- 50.5 100.0
09/24/2020 08:00 1294.46 0.0 0.00 -- 47.3 100.0
09/24/2020 07:00 1294.47 0.0 0.00 -- 47.4 100.0
09/24/2020 06:00 1294.46 0.0 0.00 -- 47.9 100.0
09/24/2020 05:00 1294.46 0.0 0.00 -- 48.0 100.0
09/24/2020 04:00 1294.47 0.0 0.00 -- 48.1 100.0
09/24/2020 03:00 1294.47 0.0 0.00 -- 49.1 100.0
09/24/2020 02:00 1294.47 0.0 0.00 -- 49.4 100.0
09/24/2020 01:00 1294.47 0.0 0.00 -- 49.4 100.0
09/24/2020 00:00 1294.47 0.0 0.00 0.00 49.4 100.0
09/23/2020 23:00 1294.47 0.0 0.00 -- 51.0 100.0
09/23/2020 22:00 1294.47 0.0 0.00 -- 52.8 100.0
09/23/2020 21:00 1294.47 0.0 0.00 -- 55.8 100.0
09/23/2020 20:00 1294.47 0.0 0.00 -- 61.2 100.0
09/23/2020 19:00 1294.48 0.0 0.00 -- 66.2 100.0
09/23/2020 18:00 1294.48 0.0 0.00 -- 67.9 100.0
09/23/2020 17:00 1294.49 0.0 0.00 -- 69.3 100.0
09/23/2020 16:00 1294.51 0.0 0.00 -- 68.2 100.0
09/23/2020 15:00 1294.49 0.0 0.00 -- 70.0 100.0
09/23/2020 14:00 1294.47 0.0 0.00 -- 68.0 100.0
09/23/2020 13:00 1294.49 0.0 0.00 -- 64.5 100.0
09/23/2020 12:00 1294.48 0.0 0.00 -- 62.2 100.0
09/23/2020 11:00 1294.48 0.0 0.00 -- 57.8 100.0
09/23/2020 10:00 1294.48 0.0 0.00 -- 54.5 100.0
09/23/2020 09:00 1294.47 0.0 0.00 -- 47.7 100.0
09/23/2020 08:00 1294.47 0.0 0.00 -- 42.9 100.0
09/23/2020 07:00 1294.47 0.0 0.00 -- 41.2 100.0
09/23/2020 06:00 1294.47 0.0 0.00 -- 42.0 100.0
09/23/2020 05:00 1294.48 0.0 0.00 -- 44.4 100.0
09/23/2020 04:00 1294.47 0.0 0.00 -- 46.5 100.0
09/23/2020 03:00 1294.49 0.0 0.00 -- 50.1 100.0
09/23/2020 02:00 1294.49 0.0 0.00 -- 49.8 100.0
09/23/2020 01:00 1294.48 0.0 0.00 -- 49.6 100.0
09/23/2020 00:00 1294.48 0.0 0.00 0.00 50.7 100.0
09/22/2020 23:00 1294.49 0.0 0.00 -- 50.8 100.0
09/22/2020 22:00 1294.49 0.0 0.00 -- 53.1 100.0
09/22/2020 21:00 1294.49 0.0 0.00 -- 54.8 100.0
09/22/2020 20:00 1294.49 0.0 0.00 -- 54.4 100.0
09/22/2020 19:00 1294.49 0.0 0.00 -- 57.4 100.0
09/22/2020 18:00 1294.50 0.0 0.00 -- 58.0 100.0
09/22/2020 17:00 1294.51 0.0 0.00 -- 58.3 100.0
09/22/2020 16:00 1294.49 0.0 0.00 -- 58.3 100.0
09/22/2020 15:00 1294.50 0.0 0.00 -- 59.5 100.0
09/22/2020 14:00 1294.51 0.0 0.00 -- 59.6 100.0
09/22/2020 13:00 1294.50 0.0 0.00 -- 56.3 100.0
09/22/2020 12:00 1294.52 0.0 0.00 -- 54.8 100.0
09/22/2020 11:00 1294.50 0.0 0.00 -- 49.8 100.0
09/22/2020 10:00 1294.49 0.0 0.00 -- 40.1 100.0
09/22/2020 09:00 1294.49 0.0 0.00 -- 33.8 100.0
09/22/2020 08:00 1294.49 0.0 0.00 -- 33.5 100.0
09/22/2020 07:00 1294.49 0.0 0.00 -- 33.8 100.0
09/22/2020 06:00 1294.49 0.0 0.00 -- 32.9 100.0
09/22/2020 05:00 1294.49 0.0 0.00 -- 32.7 100.0
09/22/2020 04:00 1294.49 0.0 0.00 -- 33.1 100.0
09/22/2020 03:00 1294.49 0.0 0.00 -- 33.5 100.0
09/22/2020 02:00 1294.49 0.0 0.00 -- 33.5 100.0
09/22/2020 01:00 1294.49 0.0 0.00 -- 34.3 100.0
09/22/2020 00:00 1294.49 0.0 0.00 0.00 35.2 100.0
09/21/2020 23:00 1294.49 0.0 0.00 -- 37.3 100.0
09/21/2020 22:00 1294.49 0.0 0.00 -- 39.3 100.0
09/21/2020 21:00 1294.49 0.0 0.00 -- 42.9 100.0
09/21/2020 20:00 1294.49 0.0 0.00 -- 47.0 100.0
09/21/2020 19:00 1294.49 0.0 0.00 -- 53.4 100.0
09/21/2020 18:00 1294.49 0.0 0.00 -- 56.8 100.0
09/21/2020 17:00 1294.49 0.0 0.00 -- 61.8 100.0
09/21/2020 16:00 1294.50 0.0 0.00 -- 61.2 100.0
09/21/2020 15:00 1294.49 0.0 0.00 -- 59.3 100.0
09/21/2020 14:00 1294.50 0.0 0.00 -- 57.4 100.0
09/21/2020 13:00 1294.49 0.0 0.00 -- 53.3 100.0
09/21/2020 12:00 1294.50 0.0 0.00 -- 53.0 100.0
09/21/2020 11:00 1294.50 0.0 0.00 -- 46.7 100.0
09/21/2020 10:00 1294.49 0.0 0.00 -- 37.8 100.0
09/21/2020 09:00 1294.50 0.0 0.00 -- 31.9 100.0
09/21/2020 08:00 1294.50 0.0 0.00 -- 30.3 100.0
09/21/2020 07:00 1294.50 0.0 0.00 -- 29.9 100.0
09/21/2020 06:00 1294.50 0.0 0.00 -- 29.7 100.0
09/21/2020 05:00 1294.50 0.0 0.00 -- 30.6 100.0
09/21/2020 04:00 1294.50 0.0 0.00 -- 30.7 100.0
09/21/2020 03:00 1294.50 0.0 0.00 -- 32.0 100.0
09/21/2020 02:00 1294.50 0.0 0.00 -- 33.6 100.0
09/21/2020 01:00 1294.50 0.0 0.00 -- 33.7 100.0
09/21/2020 00:00 1294.49 0.0 0.00 0.00 36.1 100.0
09/20/2020 23:00 1294.50 0.0 0.00 -- 37.5 100.0
09/20/2020 22:00 1294.50 0.0 0.00 -- 38.8 100.0
09/20/2020 21:00 1294.50 0.0 0.00 -- 41.1 100.0
09/20/2020 20:00 1294.50 0.0 0.00 -- 46.0 100.0
09/20/2020 19:00 1294.50 0.0 0.00 -- 50.3 100.0
09/20/2020 18:00 1294.51 0.0 0.00 -- 54.8 100.0
09/20/2020 17:00 1294.51 0.0 0.00 -- 57.9 100.0
09/20/2020 16:00 1294.51 0.0 0.00 -- 57.4 100.0
09/20/2020 15:00 1294.52 0.0 0.00 -- 55.3 100.0
09/20/2020 14:00 1294.52 0.0 0.00 -- 52.7 100.0
09/20/2020 13:00 1294.54 0.0 0.00 -- 51.6 100.0
09/20/2020 12:00 1294.52 0.0 0.00 -- 52.5 100.0
09/20/2020 11:00 1294.53 0.0 0.00 -- 48.7 100.0
09/20/2020 10:00 1294.51 0.0 0.00 -- 40.3 100.0
09/20/2020 09:00 1294.51 0.0 0.00 -- 32.2 100.0
09/20/2020 08:00 1294.51 0.0 0.00 -- 30.1 100.0
09/20/2020 07:00 1294.51 0.0 0.00 -- 29.5 100.0
09/20/2020 06:00 1294.51 0.0 0.00 -- 30.6 100.0
09/20/2020 05:00 1294.51 0.0 0.00 -- 31.5 100.0
09/20/2020 04:00 1294.51 0.0 0.00 -- 32.2 100.0
09/20/2020 03:00 1294.51 0.0 0.00 -- 31.6 100.0
09/20/2020 02:00 1294.51 0.0 0.00 -- 33.1 100.0
09/20/2020 01:00 1294.51 0.0 0.00 -- 34.0 100.0
09/20/2020 00:00 1294.51 -- 0.00 0.00 34.5 100.0
09/19/2020 23:00 1294.51 -- 0.00 -- 35.0 100.0
09/19/2020 22:00 1294.51 -- 0.00 -- 35.5 100.0
09/19/2020 21:00 1294.52 -- 0.00 -- 36.0 100.0
09/19/2020 20:00 1294.52 -- 0.00 -- 36.5 100.0
09/19/2020 19:00 1294.52 -- 0.00 -- 37.0 100.0
09/19/2020 18:00 1294.52 -- 0.00 -- 37.5 100.0
09/19/2020 17:00 1294.52 -- 0.00 -- 38.0 100.0
09/19/2020 16:00 1294.52 -- 0.00 -- 38.5 100.0
09/19/2020 15:00 1294.52 -- 0.00 -- 39.0 100.0
09/19/2020 14:00 1294.52 -- 0.00 -- 39.5 100.0
09/19/2020 13:00 1294.53 -- 0.00 -- 40.0 100.0
09/19/2020 12:00 1294.53 -- 0.00 -- 40.5 100.0
09/19/2020 11:00 1294.53 -- 0.00 -- 41.0 100.0
09/19/2020 10:00 1294.53 -- 0.00 -- 41.5 100.0
09/19/2020 09:00 1294.53 0.0 0.00 -- 36.2 100.0
09/19/2020 08:00 1294.53 0.0 0.00 -- 34.7 100.0
09/19/2020 07:00 1294.52 0.0 0.00 -- 37.2 100.0
09/19/2020 06:00 1294.53 0.0 0.00 -- 36.1 100.0
09/19/2020 05:00 1294.53 0.0 0.00 -- 38.6 100.0
09/19/2020 04:00 1294.54 0.0 0.00 -- 40.4 100.0
09/19/2020 03:00 1294.54 0.0 0.00 -- 40.9 100.0
09/19/2020 02:00 1294.55 0.0 0.00 -- 41.7 100.0
09/19/2020 01:00 1294.54 0.0 0.00 -- 42.9 100.0
09/19/2020 00:00 1294.55 0.0 0.00 0.00 44.2 100.0
09/18/2020 23:00 1294.54 0.0 0.00 -- 45.1 100.0
09/18/2020 22:00 1294.55 0.0 0.00 -- 46.9 100.0
09/18/2020 21:00 1294.56 0.0 0.00 -- 49.3 100.0
09/18/2020 20:00 1294.54 0.0 0.00 -- 52.1 100.0
09/18/2020 19:00 1294.55 0.0 0.00 -- 55.7 100.0
09/18/2020 18:00 1294.55 0.0 0.00 -- 57.4 100.0
09/18/2020 17:00 1294.56 0.0 0.00 -- 61.4 100.0
09/18/2020 16:00 1294.55 0.0 0.00 -- 62.0 100.0
09/18/2020 15:00 1294.54 0.0 0.00 -- 56.1 100.0
09/18/2020 14:00 1294.55 0.0 0.01 -- 56.1 100.0
09/18/2020 13:00 1294.54 0.0 0.00 -- 51.0 100.0
09/18/2020 12:00 1294.55 0.0 0.01 -- 49.1 100.0
09/18/2020 11:00 1294.55 0.0 0.01 -- 49.6 100.0
09/18/2020 10:00 1294.55 0.0 0.01 -- 49.7 100.0
09/18/2020 09:00 1294.54 0.0 0.01 -- 51.0 100.0
09/18/2020 08:00 1294.54 0.0 0.01 -- 51.6 100.0
09/18/2020 07:00 1294.54 0.0 0.01 -- 52.1 100.0
09/18/2020 06:00 1294.54 0.0 0.01 -- 52.2 100.0
09/18/2020 05:00 1294.53 0.0 0.00 -- 52.8 100.0
09/18/2020 04:00 1294.54 0.0 0.00 -- 53.7 100.0
09/18/2020 03:00 1294.54 0.0 0.00 -- 54.4 100.0
09/18/2020 02:00 1294.53 0.0 0.00 -- 54.7 100.0
09/18/2020 01:00 1294.53 0.0 0.00 -- 55.0 100.0
09/18/2020 00:00 1294.53 0.0 0.00 0.08 55.0 100.0
09/17/2020 23:00 1294.53 0.0 0.00 -- 55.0 100.0
09/17/2020 22:00 1294.53 0.0 0.00 -- 55.2 100.0
09/17/2020 21:00 1294.53 0.0 0.00 -- 55.5 100.0
09/17/2020 20:00 1294.54 0.0 0.00 -- 56.5 100.0
09/17/2020 19:00 1294.55 0.0 0.00 -- 59.1 100.0
09/17/2020 18:00 1294.55 0.0 0.00 -- 61.3 100.0
09/17/2020 17:00 1294.55 0.0 0.00 -- 66.0 100.0
09/17/2020 16:00 1294.54 0.0 0.00 -- 67.0 100.0
09/17/2020 15:00 1294.54 0.0 0.00 -- 69.1 100.0
09/17/2020 14:00 1294.53 0.0 0.00 -- 68.7 100.0
09/17/2020 13:00 1294.52 0.0 0.00 -- 64.8 100.0
09/17/2020 12:00 1294.52 0.0 0.00 -- 60.0 100.0
09/17/2020 11:00 1294.52 0.0 0.00 -- 57.1 100.0
09/17/2020 10:00 1294.53 0.0 0.00 -- 54.6 100.0
09/17/2020 09:00 1294.52 0.0 0.00 -- 53.4 100.0
09/17/2020 08:00 1294.52 0.0 0.00 -- 52.9 100.0
09/17/2020 07:00 1294.52 0.0 0.00 -- 53.2 100.0
09/17/2020 06:00 1294.51 0.0 0.00 -- 53.2 100.0
09/17/2020 05:00 1294.52 0.0 0.00 -- 53.4 100.0
09/17/2020 04:00 1294.51 0.0 0.00 -- 53.6 100.0
09/17/2020 03:00 1294.52 0.0 0.00 -- 54.3 100.0
09/17/2020 02:00 1294.49 0.0 0.00 -- 54.9 100.0
09/17/2020 01:00 1294.48 0.0 0.00 -- 55.8 100.0
09/17/2020 00:00 1294.49 0.0 0.00 0.00 56.7 100.0
09/16/2020 23:00 1294.48 0.0 0.00 -- 57.7 100.0
09/16/2020 22:00 1294.50 0.0 0.00 -- 59.3 100.0
09/16/2020 21:00 1294.49 0.0 0.00 -- 60.1 100.0
09/16/2020 20:00 1294.50 0.0 0.00 -- 61.1 100.0
09/16/2020 19:00 1294.52 0.0 0.00 -- 63.5 100.0
09/16/2020 18:00 1294.50 0.0 0.00 -- 65.8 100.0
09/16/2020 17:00 1294.50 0.0 0.00 -- 69.0 100.0
09/16/2020 16:00 1294.52 0.0 0.00 -- 67.6 100.0
09/16/2020 15:00 1294.51 0.0 0.00 -- 66.2 100.0
09/16/2020 14:00 1294.51 0.0 0.00 -- 64.8 100.0
09/16/2020 13:00 1294.51 0.0 0.00 -- 60.1 100.0
09/16/2020 12:00 1294.51 0.0 0.00 -- 57.3 100.0
09/16/2020 11:00 1294.52 -- 0.00 -- 51.8 100.0
09/16/2020 10:00 1294.53 0.0 0.00 -- 49.6 100.0
09/16/2020 09:00 1294.53 0.0 0.00 -- 45.2 100.0
09/16/2020 08:00 1294.53 0.0 0.00 -- 42.6 100.0
09/16/2020 07:00 1294.54 0.0 0.00 -- 41.5 100.0
09/16/2020 06:00 1294.54 0.0 0.00 -- 41.4 100.0
09/16/2020 05:00 1294.54 0.0 0.00 -- 41.2 100.0
09/16/2020 04:00 1294.54 0.0 0.00 -- 41.7 100.0
09/16/2020 03:00 1294.54 0.0 0.00 -- 41.6 100.0
09/16/2020 02:00 1294.54 0.0 0.00 -- 41.4 100.0
09/16/2020 01:00 1294.54 0.0 0.00 -- 42.2 100.0
09/16/2020 00:00 1294.55 0.0 0.00 0.00 43.7 100.0
09/15/2020 23:00 1294.55 0.0 0.00 -- 44.0 100.0
09/15/2020 22:00 1294.55 0.0 0.00 -- 44.5 100.0
09/15/2020 21:00 1294.54 0.0 0.00 -- 46.1 100.0
09/15/2020 20:00 1294.55 0.0 0.00 -- 49.7 100.0
09/15/2020 19:00 1294.55 0.0 0.00 -- 55.0 100.0
09/15/2020 18:00 1294.55 0.0 0.00 -- 59.0 100.0
09/15/2020 17:00 1294.55 0.0 0.00 -- 59.3 100.0
09/15/2020 16:00 1294.55 0.0 0.00 -- 58.8 100.0
09/15/2020 15:00 1294.54 0.0 0.00 -- 58.6 100.0
09/15/2020 14:00 1294.55 0.0 0.00 -- 57.6 100.0
09/15/2020 13:00 1294.56 0.0 0.00 -- 56.4 100.0
09/15/2020 12:00 1294.56 0.0 0.00 -- 54.4 100.0
09/15/2020 11:00 1294.56 0.0 0.00 -- 50.8 100.0
09/15/2020 10:00 1294.56 0.0 0.00 -- 46.3 100.0
09/15/2020 09:00 1294.56 0.0 0.00 -- 40.6 100.0
09/15/2020 08:00 1294.56 0.0 0.00 -- 40.3 100.0
09/15/2020 07:00 1294.57 0.0 0.00 -- 41.9 100.0
09/15/2020 06:00 1294.56 0.0 0.00 -- 43.5 100.0
09/15/2020 05:00 1294.58 0.0 0.00 -- 44.6 100.0
09/15/2020 04:00 1294.55 0.0 0.00 -- 43.8 100.0
09/15/2020 03:00 1294.59 0.0 0.00 -- 46.6 100.0
09/15/2020 02:00 1294.57 0.0 0.00 -- 46.4 100.0
09/15/2020 01:00 1294.57 0.0 0.00 -- 45.2 100.0
09/15/2020 00:00 1294.57 0.0 0.00 0.00 47.4 100.0
09/14/2020 23:00 1294.58 0.0 0.00 -- 48.5 100.0
09/14/2020 22:00 1294.57 0.0 0.00 -- 50.6 100.0
09/14/2020 21:00 1294.59 0.0 0.00 -- 51.9 100.0
09/14/2020 20:00 1294.59 0.0 0.00 -- 55.0 100.0
09/14/2020 19:00 1294.59 0.0 0.00 -- 58.5 100.0
09/14/2020 18:00 1294.59 0.0 0.00 -- 61.5 100.0
09/14/2020 17:00 1294.61 0.0 0.00 -- 65.3 100.0
09/14/2020 16:00 1294.59 0.0 0.00 -- 67.8 100.0
09/14/2020 15:00 1294.60 0.0 0.00 -- 66.7 100.0
09/14/2020 14:00 1294.57 0.0 0.00 -- 64.9 100.0
09/14/2020 13:00 1294.61 0.0 0.00 -- 64.7 100.0
09/14/2020 12:00 1294.61 0.0 0.00 -- 63.5 100.0
09/14/2020 11:00 1294.61 0.0 0.00 -- 61.1 100.0
09/14/2020 10:00 1294.60 2.0 0.00 -- 60.5 100.0
09/14/2020 09:00 1294.58 0.0 0.00 -- 59.2 100.0
09/14/2020 08:00 1294.58 0.0 0.00 -- 58.8 100.0
09/14/2020 07:00 1294.59 0.0 0.00 -- 60.9 100.0
09/14/2020 06:00 1294.59 0.0 0.00 -- 61.6 100.0
09/14/2020 05:00 1294.58 0.0 0.00 -- 60.7 100.0
09/14/2020 04:00 1294.58 0.0 0.00 -- 60.3 100.0
09/14/2020 03:00 1294.57 0.0 0.00 -- 61.1 100.0
09/14/2020 02:00 1294.58 0.0 0.00 -- 61.1 100.0
09/14/2020 01:00 1294.56 0.0 0.00 -- 61.8 100.0
09/14/2020 00:00 1294.57 0.0 0.00 0.00 63.2 100.0
09/13/2020 23:00 1294.56 0.0 0.00 -- 64.0 100.0
09/13/2020 22:00 1294.55 0.0 0.00 -- 64.3 100.0
09/13/2020 21:00 1294.55 0.0 0.00 -- 64.5 100.0
09/13/2020 20:00 1294.57 0.0 0.00 -- 64.9 100.0
09/13/2020 19:00 1294.56 0.0 0.00 -- 66.3 100.0
09/13/2020 18:00 1294.55 0.0 0.00 -- 67.6 100.0
09/13/2020 17:00 1294.55 0.0 0.00 -- 68.3 100.0
09/13/2020 16:00 1294.55 0.0 0.00 -- 68.8 100.0
09/13/2020 15:00 1294.53 0.0 0.00 -- 68.4 100.0
09/13/2020 14:00 1294.56 0.0 0.00 -- 67.5 100.0
09/13/2020 13:00 1294.55 0.0 0.00 -- 63.5 100.0
09/13/2020 12:00 1294.55 0.0 0.00 -- 61.9 100.0
09/13/2020 11:00 1294.55 0.0 0.00 -- 59.0 100.0
09/13/2020 10:00 1294.58 0.0 0.00 -- 55.1 100.0
09/13/2020 09:00 1294.59 0.0 0.00 -- 51.1 100.0
09/13/2020 08:00 1294.59 0.0 0.00 -- 48.1 100.0
09/13/2020 07:00 1294.58 0.0 0.00 -- 45.2 100.0
09/13/2020 06:00 1294.59 0.0 0.00 -- 42.4 100.0
09/13/2020 05:00 1294.59 0.0 0.00 -- 43.9 100.0
09/13/2020 04:00 1294.59 0.0 0.00 -- 43.6 100.0
09/13/2020 03:00 1294.59 0.0 0.00 -- 45.3 100.0
09/13/2020 02:00 1294.59 0.0 0.00 -- 45.9 100.0
09/13/2020 01:00 1294.59 0.0 0.00 -- 46.7 100.0
09/13/2020 00:00 1294.59 0.0 0.00 0.00 48.1 100.0
09/12/2020 23:00 1294.59 0.0 0.00 -- 49.2 100.0
09/12/2020 22:00 1294.59 0.0 0.00 -- 49.6 100.0
09/12/2020 21:00 1294.59 0.0 0.00 -- 52.2 100.0
09/12/2020 20:00 1294.59 0.0 0.00 -- 56.3 100.0
09/12/2020 19:00 1294.59 0.0 0.00 -- 61.9 100.0
09/12/2020 18:00 1294.59 0.0 0.00 -- 64.4 100.0
09/12/2020 17:00 1294.59 0.0 0.00 -- 67.9 100.0
09/12/2020 16:00 1294.58 0.0 0.00 -- 67.4 100.0
09/12/2020 15:00 1294.59 0.0 0.00 -- 66.3 100.0
09/12/2020 14:00 1294.59 0.0 0.00 -- 62.7 100.0
09/12/2020 13:00 1294.60 0.0 0.00 -- 59.4 100.0
09/12/2020 12:00 1294.60 0.0 0.00 -- 59.5 100.0
09/12/2020 11:00 1294.59 0.0 0.00 -- 54.1 100.0
09/12/2020 10:00 1294.60 0.0 0.00 -- 49.5 100.0
09/12/2020 09:00 1294.60 0.0 0.00 -- 44.0 100.0
09/12/2020 08:00 1294.60 0.0 0.00 -- 41.4 100.0
09/12/2020 07:00 1294.60 0.0 0.00 -- 41.2 100.0
09/12/2020 06:00 1294.60 0.0 0.00 -- 41.5 100.0
09/12/2020 05:00 1294.60 0.0 0.00 -- 42.2 100.0
09/12/2020 04:00 1294.60 0.0 0.00 -- 42.6 100.0
09/12/2020 03:00 1294.60 0.0 0.00 -- 43.3 100.0
09/12/2020 02:00 1294.60 0.0 0.00 -- 44.3 100.0
09/12/2020 01:00 1294.60 0.0 0.00 -- 45.1 100.0
09/12/2020 00:00 1294.60 0.0 0.00 0.00 46.1 100.0
09/11/2020 23:00 1294.60 0.0 0.00 -- 48.3 100.0
09/11/2020 22:00 1294.61 0.0 0.00 -- 50.2 100.0
09/11/2020 21:00 1294.60 0.0 0.00 -- 52.6 100.0
09/11/2020 20:00 1294.60 0.0 0.00 -- 57.4 100.0
09/11/2020 19:00 1294.62 0.0 0.00 -- 61.1 100.0
09/11/2020 18:00 1294.62 1.0 0.00 -- 63.7 100.0
09/11/2020 17:00 1294.62 1.0 0.00 -- 67.6 100.0
09/11/2020 16:00 1294.62 1.0 0.00 -- 67.9 100.0
09/11/2020 15:00 1294.63 1.0 0.00 -- 66.7 100.0
09/11/2020 14:00 1294.63 1.0 0.00 -- 64.9 100.0
09/11/2020 13:00 1294.62 1.0 0.00 -- 62.5 100.0
09/11/2020 12:00 1294.62 1.0 0.00 -- 61.3 100.0
09/11/2020 11:00 1294.63 0.0 0.00 -- 57.2 100.0
09/11/2020 10:00 1294.63 1.0 0.00 -- 56.6 100.0
09/11/2020 09:00 1294.64 1.0 0.00 -- 56.8 100.0
09/11/2020 08:00 1294.63 1.0 0.00 -- 58.0 100.0
09/11/2020 07:00 1294.63 1.0 0.00 -- 58.9 100.0
09/11/2020 06:00 1294.63 1.0 0.00 -- 59.6 100.0
09/11/2020 05:00 1294.62 1.0 0.00 -- 61.6 100.0
09/11/2020 04:00 1294.61 0.0 0.00 -- 63.5 100.0
09/11/2020 03:00 1294.61 1.0 0.00 -- 65.1 100.0
09/11/2020 02:00 1294.62 1.0 0.00 -- 65.8 100.0
09/11/2020 01:00 1294.61 1.0 0.00 -- 66.5 100.0
09/11/2020 00:00 1294.61 0.0 0.00 0.00 67.0 100.0
09/10/2020 23:00 1294.61 0.0 0.00 -- 67.7 100.0
09/10/2020 22:00 1294.60 0.0 0.00 -- 68.1 100.0
09/10/2020 21:00 1294.61 0.0 0.00 -- 68.2 100.0
09/10/2020 20:00 1294.61 0.0 0.00 -- 69.5 100.0
09/10/2020 19:00 1294.60 0.0 0.00 -- 72.2 100.0
09/10/2020 18:00 1294.60 0.0 0.00 -- 72.7 100.0
09/10/2020 17:00 1294.60 0.0 0.01 -- 70.3 100.0
09/10/2020 16:00 1294.60 0.0 0.00 -- 70.9 100.0
09/10/2020 15:00 1294.60 0.0 0.00 -- 70.0 100.0
09/10/2020 14:00 1294.59 0.0 0.01 -- 68.6 100.0
09/10/2020 13:00 1294.58 0.0 0.72 -- 67.0 100.0
09/10/2020 12:00 1294.53 0.0 0.06 -- 67.0 100.0
09/10/2020 11:00 1294.51 0.0 0.00 -- 67.8 100.0
09/10/2020 10:00 1294.51 0.0 0.00 -- 65.8 100.0
09/10/2020 09:00 1294.52 0.0 0.00 -- 62.2 100.0
09/10/2020 08:00 1294.52 0.0 0.00 -- 59.9 100.0
09/10/2020 07:00 1294.52 0.0 0.00 -- 60.5 100.0
09/10/2020 06:00 1294.52 0.0 0.00 -- 61.0 100.0
09/10/2020 05:00 1294.52 0.0 0.00 -- 61.3 100.0
09/10/2020 04:00 1294.52 0.0 0.00 -- 61.3 100.0
09/10/2020 03:00 1294.52 0.0 0.00 -- 61.4 100.0
09/10/2020 02:00 1294.52 0.0 0.00 -- 61.6 100.0
09/10/2020 01:00 1294.52 0.0 0.00 -- 61.2 100.0
09/10/2020 00:00 1294.52 0.0 0.00 0.80 62.0 100.0
09/09/2020 23:00 1294.52 0.0 0.00 -- 63.1 100.0
09/09/2020 22:00 1294.53 0.0 0.00 -- 64.6 100.0
09/09/2020 21:00 1294.53 0.0 0.00 -- 67.3 100.0
09/09/2020 20:00 1294.52 0.0 0.00 -- 70.0 100.0
09/09/2020 19:00 1294.52 0.0 0.00 -- 73.0 100.0
09/09/2020 18:00 1294.52 0.0 0.00 -- 76.6 100.0
09/09/2020 17:00 1294.52 0.0 0.00 -- 78.0 100.0
09/09/2020 16:00 1294.52 0.0 0.00 -- 77.2 100.0
09/09/2020 15:00 1294.52 0.0 0.00 -- 79.5 100.0
09/09/2020 14:00 1294.52 0.0 0.00 -- 78.1 100.0
09/09/2020 13:00 1294.52 0.0 0.00 -- 76.6 100.0
09/09/2020 12:00 1294.51 0.0 0.00 -- 74.0 100.0
09/09/2020 11:00 1294.52 0.0 0.00 -- 70.2 100.0
09/09/2020 10:00 1294.52 0.0 0.00 -- 66.5 100.0
09/09/2020 09:00 1294.53 0.0 0.00 -- 59.8 100.0
09/09/2020 08:00 1294.53 0.0 0.00 -- 57.3 100.0
09/09/2020 07:00 1294.53 0.0 0.00 -- 57.6 100.0
09/09/2020 06:00 1294.53 0.0 0.00 -- 57.6 100.0
09/09/2020 05:00 1294.53 0.0 0.00 -- 58.9 100.0
09/09/2020 04:00 1294.53 0.0 0.00 -- 59.1 100.0
09/09/2020 03:00 1294.53 0.0 0.00 -- 60.3 100.0
09/09/2020 02:00 1294.53 0.0 0.00 -- 61.0 100.0
09/09/2020 01:00 1294.53 0.0 0.00 -- 60.5 100.0
09/09/2020 00:00 1294.53 0.0 0.00 0.00 62.0 100.0
09/08/2020 23:00 1294.53 0.0 0.00 -- 63.3 100.0
09/08/2020 22:00 1294.53 0.0 0.00 -- 64.9 100.0
09/08/2020 21:00 1294.53 0.0 0.00 -- 67.3 100.0
09/08/2020 20:00 1294.53 0.0 0.00 -- 71.3 100.0
09/08/2020 19:00 1294.52 0.0 0.00 -- 76.1 100.0
09/08/2020 18:00 1294.52 0.0 0.00 -- 79.2 100.0
09/08/2020 17:00 1294.53 0.0 0.00 -- 79.1 100.0
09/08/2020 16:00 1294.52 0.0 0.00 -- 77.7 100.0
09/08/2020 15:00 1294.53 0.0 0.00 -- 78.2 100.0
09/08/2020 14:00 1294.52 0.0 0.00 -- 76.8 100.0
09/08/2020 13:00 1294.53 0.0 0.00 -- 75.6 100.0
09/08/2020 12:00 1294.53 0.0 0.00 -- 73.7 100.0
09/08/2020 11:00 1294.53 0.0 0.00 -- 68.8 100.0
09/08/2020 10:00 1294.53 0.0 0.00 -- 64.4 100.0
09/08/2020 09:00 1294.53 0.0 0.00 -- 61.7 100.0
09/08/2020 08:00 1294.53 0.0 0.00 -- 61.3 100.0
09/08/2020 07:00 1294.52 0.0 0.00 -- 61.0 100.0
09/08/2020 06:00 1294.52 0.0 0.00 -- 61.1 100.0
09/08/2020 05:00 1294.52 0.0 0.00 -- 61.5 100.0
09/08/2020 04:00 1294.52 0.0 0.00 -- 62.2 100.0
09/08/2020 03:00 1294.52 0.0 0.00 -- 62.6 100.0
09/08/2020 02:00 1294.52 0.0 0.00 -- 63.1 100.0
09/08/2020 01:00 1294.52 0.0 0.00 -- 62.8 100.0
09/08/2020 00:00 1294.52 0.0 0.00 0.00 63.6 100.0
09/07/2020 23:00 1294.52 0.0 0.00 -- 65.2 100.0
09/07/2020 22:00 1294.53 0.0 0.00 -- 65.9 100.0
09/07/2020 21:00 1294.52 0.0 0.00 -- 66.5 100.0
09/07/2020 20:00 1294.52 0.0 0.00 -- 69.0 100.0
09/07/2020 19:00 1294.52 0.0 0.00 -- 70.9 100.0
09/07/2020 18:00 1294.53 0.0 0.00 -- 72.6 100.0
09/07/2020 17:00 1294.51 0.0 0.00 -- 75.5 100.0
09/07/2020 16:00 1294.51 0.0 0.00 -- 74.0 100.0
09/07/2020 15:00 1294.48 0.0 0.00 -- 76.3 100.0
09/07/2020 14:00 1294.51 0.0 0.00 -- 74.7 100.0
09/07/2020 13:00 1294.50 0.0 0.00 -- 71.6 100.0
09/07/2020 12:00 1294.51 0.0 0.00 -- 69.6 100.0
09/07/2020 11:00 1294.51 0.0 0.00 -- 66.8 100.0
09/07/2020 10:00 1294.53 0.0 0.00 -- 65.1 100.0
09/07/2020 09:00 1294.51 0.0 0.00 -- 62.9 100.0
09/07/2020 08:00 1294.52 0.0 0.00 -- 62.4 100.0
09/07/2020 07:00 1294.53 0.0 0.00 -- 62.3 100.0
09/07/2020 06:00 1294.53 0.0 0.00 -- 60.2 100.0
09/07/2020 05:00 1294.55 0.0 0.00 -- 53.7 100.0
09/07/2020 04:00 1294.54 0.0 0.00 -- 52.0 100.0
09/07/2020 03:00 1294.55 0.0 0.00 -- 52.2 100.0
09/07/2020 02:00 1294.55 0.0 0.00 -- 50.9 100.0
09/07/2020 01:00 1294.54 0.0 0.00 -- 50.8 100.0
09/07/2020 00:00 1294.55 0.0 0.00 0.00 52.2 100.0
09/06/2020 23:00 1294.55 0.0 0.00 -- 53.6 100.0
09/06/2020 22:00 1294.55 0.0 0.00 -- 55.3 100.0
09/06/2020 21:00 1294.55 0.0 0.00 -- 57.9 100.0
09/06/2020 20:00 1294.55 0.0 0.00 -- 62.6 100.0
09/06/2020 19:00 1294.55 0.0 0.00 -- 67.5 100.0
09/06/2020 18:00 1294.54 0.0 0.00 -- 67.9 100.0
09/06/2020 17:00 1294.56 0.0 0.00 -- 71.2 100.0
09/06/2020 16:00 1294.55 0.0 0.00 -- 71.7 100.0
09/06/2020 15:00 1294.54 0.0 0.00 -- 69.1 100.0
09/06/2020 14:00 1294.55 0.0 0.00 -- 68.3 100.0
09/06/2020 13:00 1294.55 0.0 0.00 -- 68.6 100.0
09/06/2020 12:00 1294.55 0.0 0.00 -- 67.1 100.0
09/06/2020 11:00 1294.55 0.0 0.00 -- 62.9 100.0
09/06/2020 10:00 1294.56 0.0 0.00 -- 59.2 100.0
09/06/2020 09:00 1294.55 0.0 0.00 -- 54.2 100.0
09/06/2020 08:00 1294.55 0.0 0.00 -- 53.2 100.0
09/06/2020 07:00 1294.55 0.0 0.00 -- 52.7 100.0
09/06/2020 06:00 1294.55 0.0 0.00 -- 52.2 100.0
09/06/2020 05:00 1294.55 0.0 0.00 -- 51.8 100.0
09/06/2020 04:00 1294.55 0.0 0.00 -- 52.4 100.0
09/06/2020 03:00 1294.55 0.0 0.00 -- 52.8 100.0
09/06/2020 02:00 1294.55 0.0 0.00 -- 52.3 100.0
09/06/2020 01:00 1294.55 0.0 0.00 -- 52.5 100.0
09/06/2020 00:00 1294.55 0.0 0.00 0.00 53.8 100.0
09/05/2020 23:00 1294.55 0.0 0.00 -- 56.0 100.0
09/05/2020 22:00 1294.56 0.0 0.00 -- 56.4 100.0
09/05/2020 21:00 1294.55 0.0 0.00 -- 57.6 100.0
09/05/2020 20:00 1294.56 0.0 0.00 -- 63.2 100.0
09/05/2020 19:00 1294.55 0.0 0.00 -- 67.1 100.0
09/05/2020 18:00 1294.55 0.0 0.00 -- 68.7 100.0
09/05/2020 17:00 1294.56 0.0 0.00 -- 69.9 100.0
09/05/2020 16:00 1294.55 0.0 0.00 -- 68.0 100.0
09/05/2020 15:00 1294.57 0.0 0.00 -- 70.2 100.0
09/05/2020 14:00 1294.54 0.0 0.00 -- 68.1 100.0
09/05/2020 13:00 1294.57 0.0 0.00 -- 65.9 100.0
09/05/2020 12:00 1294.56 0.0 0.00 -- 64.2 100.0
09/05/2020 11:00 1294.55 0.0 0.00 -- 60.2 100.0
09/05/2020 10:00 1294.56 0.0 0.00 -- 57.1 100.0
09/05/2020 09:00 1294.56 0.0 0.00 -- 47.3 100.0
09/05/2020 08:00 1294.56 0.0 0.00 -- 44.5 100.0
09/05/2020 07:00 1294.56 0.0 0.00 -- 45.8 100.0
09/05/2020 06:00 1294.56 0.0 0.00 -- 45.6 100.0
09/05/2020 05:00 1294.56 0.0 0.00 -- 45.5 100.0
09/05/2020 04:00 1294.57 0.0 0.00 -- 48.7 100.0
09/05/2020 03:00 1294.57 0.0 0.00 -- 49.7 100.0
09/05/2020 02:00 1294.56 0.0 0.00 -- 50.0 100.0
09/05/2020 01:00 1294.57 0.0 0.00 -- 56.1 100.0
09/05/2020 00:00 1294.56 0.0 0.00 0.00 58.6 100.0
09/04/2020 23:00 1294.56 0.0 0.00 -- 62.0 100.0
09/04/2020 22:00 1294.56 0.0 0.00 -- 57.2 100.0
09/04/2020 21:00 1294.56 0.0 0.00 -- 58.5 100.0
09/04/2020 20:00 1294.57 0.0 0.00 -- 64.7 100.0
09/04/2020 19:00 1294.57 0.0 0.00 -- 69.6 100.0
09/04/2020 18:00 1294.57 0.0 0.00 -- 70.7 100.0
09/04/2020 17:00 1294.58 0.0 0.00 -- 75.1 100.0
09/04/2020 16:00 1294.59 0.0 0.00 -- 75.1 100.0
09/04/2020 15:00 1294.58 0.0 0.00 -- 74.0 100.0
09/04/2020 14:00 1294.57 0.0 0.00 -- 73.2 100.0
09/04/2020 13:00 1294.59 0.0 0.00 -- 71.9 100.0
09/04/2020 12:00 1294.58 0.0 0.00 -- 71.8 100.0
09/04/2020 11:00 1294.56 0.0 0.00 -- 68.4 100.0
09/04/2020 10:00 1294.58 0.0 0.00 -- 66.3 100.0
09/04/2020 09:00 1294.57 0.0 0.00 -- 62.3 100.0
09/04/2020 08:00 1294.57 0.0 0.00 -- 57.6 100.0
09/04/2020 07:00 1294.56 0.0 0.00 -- 60.8 100.0
09/04/2020 06:00 1294.56 0.0 0.00 -- 61.2 100.0
09/04/2020 05:00 1294.56 0.0 0.00 -- 59.3 100.0
09/04/2020 04:00 1294.56 0.0 0.00 -- 56.3 100.0
09/04/2020 03:00 1294.56 0.0 0.00 -- 56.6 100.0
09/04/2020 02:00 1294.57 0.0 0.00 -- 56.7 100.0
09/04/2020 01:00 1294.56 0.0 0.00 -- 56.5 100.0
09/04/2020 00:00 1294.57 0.0 0.00 0.00 56.8 100.0
09/03/2020 23:00 1294.57 0.0 0.00 -- 57.2 100.0
09/03/2020 22:00 1294.57 0.0 0.00 -- 59.4 100.0
09/03/2020 21:00 1294.58 0.0 0.00 -- 62.6 100.0
09/03/2020 20:00 1294.57 0.0 0.00 -- 66.4 100.0
09/03/2020 19:00 1294.58 0.0 0.00 -- 67.9 100.0
09/03/2020 18:00 1294.57 0.0 0.00 -- 69.5 100.0
09/03/2020 17:00 1294.56 0.0 0.00 -- 73.8 100.0
09/03/2020 16:00 1294.57 0.0 0.00 -- 77.2 100.0
09/03/2020 15:00 1294.58 0.0 0.00 -- 76.9 100.0
09/03/2020 14:00 1294.58 0.0 0.00 -- 75.6 100.0
09/03/2020 13:00 1294.58 0.0 0.00 -- 75.2 100.0
09/03/2020 12:00 1294.58 0.0 0.00 -- 73.0 100.0
09/03/2020 11:00 1294.58 0.0 0.00 -- 65.9 100.0
09/03/2020 10:00 1294.58 0.0 0.00 -- 64.0 100.0
09/03/2020 09:00 1294.58 0.0 0.00 -- 62.9 100.0
09/03/2020 08:00 1294.58 0.0 0.00 -- 62.3 100.0
09/03/2020 07:00 1294.58 0.0 0.00 -- 63.4 100.0
09/03/2020 06:00 1294.58 0.0 0.01 -- 64.3 100.0
09/03/2020 05:00 1294.59 0.0 0.00 -- 65.2 100.0
09/03/2020 04:00 1294.56 0.0 0.00 -- 67.7 100.0
09/03/2020 03:00 1294.56 0.0 0.05 -- 67.4 100.0
09/03/2020 02:00 1294.56 0.0 0.01 -- 67.1 100.0
09/03/2020 01:00 1294.55 0.0 0.00 -- 66.6 100.0
09/03/2020 00:00 1294.54 0.0 0.01 0.07 66.2 100.0
09/02/2020 23:00 1294.56 0.0 0.00 -- 65.1 100.0
09/02/2020 22:00 1294.56 0.0 0.00 -- 64.5 100.0
09/02/2020 21:00 1294.55 0.0 0.00 -- 64.1 100.0
09/02/2020 20:00 1294.56 0.0 0.00 -- 63.7 100.0
09/02/2020 19:00 1294.56 0.0 0.00 -- 63.8 100.0
09/02/2020 18:00 1294.56 0.0 0.01 -- 64.1 100.0
09/02/2020 17:00 1294.55 0.0 0.01 -- 64.0 100.0
09/02/2020 16:00 1294.56 0.0 0.00 -- 63.4 100.0
09/02/2020 15:00 1294.55 0.0 0.00 -- 63.1 100.0
09/02/2020 14:00 1294.54 0.0 0.00 -- 62.4 100.0
09/02/2020 13:00 1294.55 0.0 0.00 -- 61.7 100.0
09/02/2020 12:00 1294.56 0.0 0.02 -- 59.9 100.0
09/02/2020 11:00 1294.56 0.0 0.05 -- 58.1 100.0
09/02/2020 10:00 1294.55 0.0 0.08 -- 56.8 100.0
09/02/2020 09:00 1294.55 0.0 0.00 -- 56.0 100.0
09/02/2020 08:00 1294.55 0.0 0.00 -- 56.0 100.0
09/02/2020 07:00 1294.55 0.0 0.00 -- 56.9 100.0
09/02/2020 06:00 1294.55 0.0 0.00 -- 56.1 100.0
09/02/2020 05:00 1294.55 0.0 0.00 -- 56.0 100.0
09/02/2020 04:00 1294.55 0.0 0.00 -- 56.7 100.0
09/02/2020 03:00 1294.55 0.0 0.00 -- 57.1 100.0
09/02/2020 02:00 1294.55 0.0 0.00 -- 58.1 100.0
09/02/2020 01:00 1294.55 0.0 0.00 -- 59.6 100.0
09/02/2020 00:00 1294.55 0.0 0.00 0.18 60.8 100.0
09/01/2020 23:00 1294.55 0.0 0.00 -- 61.9 100.0
09/01/2020 22:00 1294.55 0.0 0.00 -- 63.0 100.0
09/01/2020 21:00 1294.55 0.0 0.00 -- 64.5 100.0
09/01/2020 20:00 1294.55 0.0 0.00 -- 66.1 100.0
09/01/2020 19:00 1294.54 0.0 0.00 -- 68.6 100.0
09/01/2020 18:00 1294.54 0.0 0.00 -- 70.3 100.0
09/01/2020 17:00 1294.53 0.0 0.00 -- 73.2 100.0
09/01/2020 16:00 1294.54 0.0 0.00 -- 73.9 100.0
09/01/2020 15:00 1294.54 0.0 0.00 -- 72.4 100.0
09/01/2020 14:00 1294.54 0.0 0.00 -- 69.6 100.0
09/01/2020 13:00 1294.53 0.0 0.00 -- 68.0 100.0
09/01/2020 12:00 1294.55 0.0 0.00 -- 67.2 100.0
09/01/2020 11:00 1294.53 0.0 0.00 -- 63.6 100.0
09/01/2020 10:00 1294.55 0.0 0.00 -- 59.7 100.0
09/01/2020 09:00 1294.55 0.0 0.00 -- 56.2 100.0
09/01/2020 08:00 1294.55 0.0 0.00 -- 52.7 100.0
09/01/2020 07:00 1294.55 0.0 0.00 -- 52.3 100.0
09/01/2020 06:00 1294.55 0.0 0.00 -- 52.5 100.0
09/01/2020 05:00 1294.55 0.0 0.00 -- 53.5 100.0
09/01/2020 04:00 1294.55 0.0 0.00 -- 54.2 100.0
09/01/2020 03:00 1294.55 0.0 0.00 -- 53.7 100.0
09/01/2020 02:00 1294.54 0.0 0.00 -- 53.4 100.0
09/01/2020 01:00 1294.55 0.0 0.00 -- 53.0 100.0
09/01/2020 00:00 1294.55 0.0 0.00 0.00 52.3 100.0
08/31/2020 23:00 1294.55 0.0 0.00 -- 53.9 100.0
08/31/2020 22:00 1294.55 0.0 0.00 -- 55.1 100.0
08/31/2020 21:00 1294.55 0.0 0.00 -- 57.3 100.0
08/31/2020 20:00 1294.55 0.0 0.00 -- 61.6 100.0
08/31/2020 19:00 1294.55 0.0 0.00 -- 66.3 100.0
08/31/2020 18:00 1294.55 0.0 0.00 -- 68.1 100.0
08/31/2020 17:00 1294.54 0.0 0.00 -- 69.0 100.0
08/31/2020 16:00 1294.54 0.0 0.00 -- 68.6 100.0
08/31/2020 15:00 1294.54 0.0 0.00 -- 70.3 100.0
08/31/2020 14:00 1294.55 0.0 0.00 -- 67.4 100.0
08/31/2020 13:00 1294.55 0.0 0.00 -- 67.2 100.0
08/31/2020 12:00 1294.56 0.0 0.00 -- 67.2 100.0
08/31/2020 11:00 1294.56 0.0 0.00 -- 59.8 100.0
08/31/2020 10:00 1294.55 0.0 0.00 -- 54.8 100.0
08/31/2020 09:00 1294.56 0.0 0.00 -- 47.7 100.0
08/31/2020 08:00 1294.56 0.0 0.00 -- 44.4 100.0
08/31/2020 07:00 1294.55 0.0 0.00 -- 44.2 100.0
08/31/2020 06:00 1294.55 0.0 0.00 -- 44.4 100.0
08/31/2020 05:00 1294.56 0.0 0.00 -- 44.3 100.0
08/31/2020 04:00 1294.56 0.0 0.00 -- 45.2 100.0
08/31/2020 03:00 1294.56 0.0 0.00 -- 45.7 100.0
08/31/2020 02:00 1294.56 0.0 0.00 -- 46.4 100.0
08/31/2020 01:00 1294.55 0.0 0.00 -- 47.5 100.0
08/31/2020 00:00 1294.56 0.0 0.00 0.00 47.9 100.0
08/30/2020 23:00 1294.56 -- 0.00 -- 49.7 100.0
08/30/2020 22:00 1294.57 -- 0.00 -- 51.6 100.0
08/30/2020 21:00 1294.57 -- 0.00 -- 53.4 100.0
08/30/2020 20:00 1294.57 -- 0.00 -- 55.3 100.0
08/30/2020 19:00 1294.58 -- 0.00 -- 57.1 100.0
08/30/2020 18:00 1294.58 -- 0.00 -- 59.0 100.0
08/30/2020 17:00 1294.58 -- 0.00 -- 60.8 100.0
08/30/2020 16:00 1294.59 -- 0.00 -- 62.7 100.0
08/30/2020 15:00 1294.59 -- 0.00 -- 64.5 100.0
08/30/2020 14:00 -- 0.0 0.00 -- -- --
08/30/2020 13:00 1294.61 -- 0.00 -- 61.7 100.0
08/30/2020 12:00 1294.58 0.0 0.00 -- 62.9 100.0
08/30/2020 11:00 1294.56 0.0 0.00 -- 60.7 100.0
08/30/2020 10:00 1294.58 0.0 0.00 -- 59.9 100.0
08/30/2020 09:00 1294.58 0.0 0.00 -- 60.0 100.0
08/30/2020 08:00 1294.58 0.0 0.00 -- 59.4 100.0
08/30/2020 07:00 1294.56 0.0 0.00 -- 59.0 100.0
08/30/2020 06:00 1294.56 0.0 0.00 -- 58.5 100.0
08/30/2020 05:00 1294.56 0.0 0.00 -- 59.5 100.0
08/30/2020 04:00 1294.57 0.0 0.00 -- 60.0 100.0
08/30/2020 03:00 1294.56 0.0 0.00 -- 60.4 100.0
08/30/2020 02:00 1294.55 0.0 0.00 -- 62.4 100.0
08/30/2020 01:00 1294.56 0.0 0.00 -- 64.9 100.0
08/30/2020 00:00 1294.55 0.0 0.00 0.00 66.7 100.0
08/29/2020 23:00 1294.54 0.0 0.01 -- 68.6 100.0
08/29/2020 22:00 1294.55 0.0 0.00 -- 67.6 100.0
08/29/2020 21:00 1294.56 0.0 0.00 -- 65.2 100.0
08/29/2020 20:00 1294.56 0.0 0.00 -- 66.4 100.0
08/29/2020 19:00 1294.54 0.0 0.01 -- 67.1 100.0
08/29/2020 18:00 1294.55 0.0 0.00 -- 66.1 100.0
08/29/2020 17:00 1294.56 0.0 0.00 -- 63.2 100.0
08/29/2020 16:00 1294.55 0.0 0.00 -- 61.2 100.0
08/29/2020 15:00 1294.56 0.0 0.01 -- 60.5 100.0
08/29/2020 14:00 1294.55 0.0 0.00 -- 59.6 100.0
08/29/2020 13:00 1294.55 0.0 0.02 -- 58.9 100.0
08/29/2020 12:00 1294.55 0.0 0.18 -- 58.0 100.0
08/29/2020 11:00 1294.52 0.0 0.18 -- 57.0 100.0
08/29/2020 10:00 1294.51 0.0 0.17 -- 56.3 100.0
08/29/2020 09:00 1294.49 0.0 0.27 -- 56.1 100.0
08/29/2020 08:00 1294.45 0.0 0.00 -- 55.6 100.0
08/29/2020 07:00 1294.45 0.0 0.02 -- 56.0 100.0
08/29/2020 06:00 1294.45 0.0 0.00 -- 57.2 100.0
08/29/2020 05:00 1294.45 0.0 0.00 -- 56.2 100.0
08/29/2020 04:00 1294.45 0.0 0.00 -- 55.8 100.0
08/29/2020 03:00 1294.44 0.0 0.00 -- 54.4 100.0
08/29/2020 02:00 1294.45 0.0 0.00 -- 54.4 100.0
08/29/2020 01:00 1294.45 0.0 0.00 -- 53.7 100.0
08/29/2020 00:00 1294.45 0.0 0.00 0.87 54.2 100.0
08/28/2020 23:00 1294.45 0.0 0.00 -- 55.5 100.0
08/28/2020 22:00 1294.45 0.0 0.00 -- 56.8 100.0
08/28/2020 21:00 1294.45 0.0 0.00 -- 60.3 100.0
08/28/2020 20:00 1294.45 0.0 0.00 -- 65.4 100.0
08/28/2020 19:00 1294.45 0.0 0.00 -- 68.8 100.0
08/28/2020 18:00 1294.45 0.0 0.00 -- 70.7 100.0
08/28/2020 17:00 1294.46 0.0 0.00 -- 70.4 100.0
08/28/2020 16:00 1294.45 0.0 0.00 -- 70.6 100.0
08/28/2020 15:00 1294.46 0.0 0.00 -- 69.7 100.0
08/28/2020 14:00 1294.45 0.0 0.00 -- 65.3 100.0
08/28/2020 13:00 1294.46 0.0 0.00 -- 65.0 100.0
08/28/2020 12:00 1294.46 0.0 0.00 -- 66.1 100.0
08/28/2020 11:00 1294.45 0.0 0.00 -- 62.9 100.0
08/28/2020 10:00 1294.47 0.0 0.00 -- 59.2 100.0
08/28/2020 09:00 1294.45 0.0 0.00 -- 58.2 100.0
08/28/2020 08:00 1294.46 0.0 0.00 -- 57.3 100.0
08/28/2020 07:00 1294.45 0.0 0.00 -- 57.5 100.0
08/28/2020 06:00 1294.45 0.0 0.01 -- 56.9 100.0
08/28/2020 05:00 1294.45 0.0 0.01 -- 56.6 100.0
08/28/2020 04:00 1294.45 0.0 0.00 -- 56.4 100.0
08/28/2020 03:00 1294.45 0.0 0.00 -- 56.6 100.0
08/28/2020 02:00 1294.45 0.0 0.00 -- 55.6 100.0
08/28/2020 01:00 1294.45 0.0 0.00 -- 54.3 100.0
08/28/2020 00:00 1294.46 0.0 0.00 0.02 54.9 100.0
08/27/2020 23:00 1294.45 0.0 0.00 -- 55.4 100.0
08/27/2020 22:00 1294.45 0.0 0.00 -- 56.1 100.0
08/27/2020 21:00 1294.45 0.0 0.00 -- 56.5 100.0
08/27/2020 20:00 1294.45 0.0 0.00 -- 57.3 100.0
08/27/2020 19:00 1294.46 0.0 0.02 -- 57.8 100.0
08/27/2020 18:00 1294.46 0.0 0.05 -- 56.8 100.0
08/27/2020 17:00 1294.45 0.0 0.00 -- 56.3 100.0
08/27/2020 16:00 1294.44 0.0 0.01 -- 55.1 100.0
08/27/2020 15:00 1294.46 0.0 0.10 -- 54.6 100.0
08/27/2020 14:00 1294.44 0.0 0.05 -- 53.3 100.0
08/27/2020 13:00 1294.43 0.0 0.00 -- 55.6 100.0
08/27/2020 12:00 1294.43 0.0 0.00 -- 57.4 100.0
08/27/2020 11:00 1294.43 0.0 0.00 -- 55.0 100.0
08/27/2020 10:00 1294.43 0.0 0.00 -- 52.6 100.0
08/27/2020 09:00 1294.43 0.0 0.00 -- 49.5 100.0
08/27/2020 08:00 1294.44 0.0 0.00 -- 45.9 100.0
08/27/2020 07:00 1294.44 0.0 0.00 -- 44.8 100.0
08/27/2020 06:00 1294.44 0.0 0.00 -- 44.5 100.0
08/27/2020 05:00 1294.44 0.0 0.00 -- 45.7 100.0
08/27/2020 04:00 1294.44 0.0 0.00 -- 47.0 100.0
08/27/2020 03:00 1294.44 0.0 0.00 -- 48.4 100.0
08/27/2020 02:00 1294.44 0.0 0.00 -- 53.6 100.0
08/27/2020 01:00 1294.45 0.0 0.00 -- 53.3 100.0
08/27/2020 00:00 1294.45 0.0 0.00 0.23 55.7 100.0
08/26/2020 23:00 1294.45 0.0 0.00 -- 56.1 100.0
08/26/2020 22:00 1294.45 0.0 0.00 -- 57.6 100.0
08/26/2020 21:00 1294.45 0.0 0.00 -- 60.2 100.0
08/26/2020 20:00 1294.46 0.0 0.00 -- 62.8 100.0
08/26/2020 19:00 1294.46 0.0 0.00 -- 64.8 100.0
08/26/2020 18:00 1294.45 0.0 0.00 -- 65.2 100.0
08/26/2020 17:00 1294.47 0.0 0.00 -- 67.5 100.0
08/26/2020 16:00 1294.44 0.0 0.00 -- 66.4 100.0
08/26/2020 15:00 1294.47 0.0 0.00 -- 65.0 100.0
08/26/2020 14:00 1294.48 0.0 0.00 -- 63.7 100.0
08/26/2020 13:00 1294.48 0.0 0.00 -- 61.8 100.0
08/26/2020 12:00 1294.47 0.0 0.00 -- 59.4 100.0
08/26/2020 11:00 1294.46 0.0 0.00 -- 56.8 100.0
08/26/2020 10:00 1294.49 0.0 0.00 -- 53.6 100.0
08/26/2020 09:00 1294.47 0.0 0.00 -- 53.2 100.0
08/26/2020 08:00 1294.48 0.0 0.00 -- 52.6 100.0
08/26/2020 07:00 1294.48 0.0 0.00 -- 53.1 100.0
08/26/2020 06:00 1294.47 0.0 0.00 -- 53.5 100.0
08/26/2020 05:00 1294.48 0.0 0.00 -- 53.8 100.0
08/26/2020 04:00 1294.47 0.0 0.00 -- 55.0 100.0
08/26/2020 03:00 1294.50 0.0 0.00 -- 57.1 100.0
08/26/2020 02:00 1294.49 0.0 0.00 -- 59.0 100.0
08/26/2020 01:00 1294.52 0.0 0.00 -- 60.7 100.0
08/26/2020 00:00 1294.49 0.0 0.00 0.00 62.0 100.0
08/25/2020 23:00 1294.51 0.0 0.00 -- 63.6 100.0
08/25/2020 22:00 1294.50 0.0 0.00 -- 65.6 100.0
08/25/2020 21:00 1294.52 0.0 0.00 -- 67.8 100.0
08/25/2020 20:00 1294.49 0.0 0.00 -- 69.9 100.0
08/25/2020 19:00 1294.48 0.0 0.00 -- 70.5 100.0
08/25/2020 18:00 1294.53 0.0 0.00 -- 73.9 100.0
08/25/2020 17:00 1294.46 0.0 0.00 -- 78.6 100.0
08/25/2020 16:00 1294.48 0.0 0.00 -- 80.0 100.0
08/25/2020 15:00 1294.47 0.0 0.00 -- 77.6 100.0
08/25/2020 14:00 1294.46 0.0 0.00 -- 78.0 100.0
08/25/2020 13:00 1294.47 0.0 0.00 -- 77.2 100.0
08/25/2020 12:00 1294.49 0.0 0.00 -- 74.2 100.0
08/25/2020 11:00 1294.48 0.0 0.00 -- 73.1 100.0
08/25/2020 10:00 1294.47 0.0 0.00 -- 68.0 100.0
08/25/2020 09:00 1294.46 0.0 0.00 -- 67.1 100.0
08/25/2020 08:00 1294.48 0.0 0.00 -- 65.5 100.0
08/25/2020 07:00 1294.48 0.0 0.00 -- 66.1 100.0
08/25/2020 06:00 1294.48 0.0 0.00 -- 62.8 100.0
08/25/2020 05:00 1294.48 0.0 0.00 -- 63.0 100.0
08/25/2020 04:00 1294.48 0.0 0.00 -- 64.1 100.0
08/25/2020 03:00 1294.48 0.0 0.00 -- 64.9 100.0
08/25/2020 02:00 1294.48 0.0 0.00 -- 65.1 100.0
08/25/2020 01:00 1294.48 0.0 0.00 -- 65.7 100.0
08/25/2020 00:00 1294.48 0.0 0.00 0.00 66.5 100.0
08/24/2020 23:00 1294.49 0.0 0.00 -- 68.4 100.0
08/24/2020 22:00 1294.48 0.0 0.00 -- 69.8 100.0
08/24/2020 21:00 1294.48 0.0 0.00 -- 71.5 100.0
08/24/2020 20:00 1294.48 0.0 0.00 -- 75.5 100.0
08/24/2020 19:00 1294.49 0.0 0.00 -- 80.0 100.0
08/24/2020 18:00 1294.47 0.0 0.00 -- 81.6 100.0
08/24/2020 17:00 1294.49 0.0 0.00 -- 83.2 100.0
08/24/2020 16:00 1294.49 0.0 0.00 -- 77.3 100.0
08/24/2020 15:00 1294.49 0.0 0.00 -- 85.3 100.0
08/24/2020 14:00 1294.49 0.0 0.00 -- 84.2 100.0
08/24/2020 13:00 1294.50 0.0 0.00 -- 81.4 100.0
08/24/2020 12:00 1294.49 0.0 0.01 -- 77.6 100.0
08/24/2020 11:00 1294.49 0.0 0.00 -- 73.3 100.0
08/24/2020 10:00 1294.49 0.0 0.00 -- 66.0 100.0
08/24/2020 09:00 1294.49 0.0 0.00 -- 64.0 100.0
08/24/2020 08:00 1294.49 0.0 0.00 -- 63.0 100.0
08/24/2020 07:00 1294.50 0.0 0.00 -- 62.7 100.0
08/24/2020 06:00 1294.49 0.0 0.00 -- 62.8 100.0
08/24/2020 05:00 1294.49 0.0 0.00 -- 63.2 100.0
08/24/2020 04:00 1294.48 0.0 0.00 -- 64.0 100.0
08/24/2020 03:00 1294.49 0.0 0.00 -- 62.5 100.0
08/24/2020 02:00 1294.49 0.0 0.00 -- 61.7 100.0
08/24/2020 01:00 1294.49 0.0 0.00 -- 62.6 100.0
08/24/2020 00:00 1294.49 0.0 0.01 0.01 64.4 100.0
08/23/2020 23:00 1294.50 0.0 0.04 -- 65.2 100.0
08/23/2020 22:00 1294.49 0.0 0.00 -- 67.3 100.0
08/23/2020 21:00 1294.49 0.0 0.00 -- 68.9 100.0
08/23/2020 20:00 1294.49 0.0 0.00 -- 71.7 100.0
08/23/2020 19:00 1294.49 0.0 0.00 -- 76.4 100.0
08/23/2020 18:00 1294.49 0.0 0.00 -- 73.5 100.0
08/23/2020 17:00 1294.47 0.0 0.03 -- 74.7 100.0
08/23/2020 16:00 1294.49 0.0 0.00 -- 71.8 100.0
08/23/2020 15:00 1294.49 0.0 0.07 -- 73.0 100.0
08/23/2020 14:00 1294.49 0.0 0.00 -- 81.2 100.0
08/23/2020 13:00 1294.47 0.0 0.00 -- 79.3 100.0
08/23/2020 12:00 1294.49 0.0 0.00 -- 77.2 100.0
08/23/2020 11:00 1294.48 0.0 0.00 -- 73.5 100.0
08/23/2020 10:00 1294.50 0.0 0.00 -- 65.1 100.0
08/23/2020 09:00 1294.50 0.0 0.00 -- 58.2 100.0
08/23/2020 08:00 1294.50 0.0 0.00 -- 55.0 100.0
08/23/2020 07:00 1294.50 0.0 0.00 -- 55.7 100.0
08/23/2020 06:00 1294.50 0.0 0.00 -- 55.2 100.0
08/23/2020 05:00 1294.50 0.0 0.00 -- 56.0 100.0
08/23/2020 04:00 1294.50 0.0 0.00 -- 56.5 100.0
08/23/2020 03:00 1294.50 0.0 0.00 -- 57.4 100.0
08/23/2020 02:00 1294.50 0.0 0.00 -- 59.0 100.0
08/23/2020 01:00 1294.50 0.0 0.00 -- 60.2 100.0
08/23/2020 00:00 1294.50 0.0 0.00 0.15 62.1 100.0
08/22/2020 23:00 1294.50 0.0 0.00 -- 64.4 100.0
08/22/2020 22:00 1294.50 0.0 0.00 -- 66.3 100.0
08/22/2020 21:00 1294.50 0.0 0.00 -- 68.1 100.0
08/22/2020 20:00 1294.50 0.0 0.00 -- 72.6 100.0
08/22/2020 19:00 1294.51 0.0 0.00 -- 78.0 100.0
08/22/2020 18:00 1294.51 0.0 0.00 -- 80.1 100.0
08/22/2020 17:00 1294.50 0.0 0.00 -- 78.8 100.0
08/22/2020 16:00 1294.50 0.0 0.00 -- 78.1 100.0
08/22/2020 15:00 1294.50 0.0 0.00 -- 75.5 100.0
08/22/2020 14:00 1294.51 0.0 0.00 -- 75.4 100.0
08/22/2020 13:00 1294.50 0.0 0.00 -- 72.5 100.0
08/22/2020 12:00 1294.51 0.0 0.02 -- 67.4 100.0
08/22/2020 11:00 1294.50 0.0 0.09 -- 63.8 100.0
08/22/2020 10:00 1294.49 0.0 0.00 -- 66.4 100.0
08/22/2020 09:00 1294.50 0.0 0.00 -- 58.9 100.0
08/22/2020 08:00 1294.50 0.0 0.00 -- 55.6 100.0
08/22/2020 07:00 1294.50 0.0 0.00 -- 54.9 100.0
08/22/2020 06:00 1294.50 0.0 0.00 -- 55.7 100.0
08/22/2020 05:00 1294.50 0.0 0.00 -- 56.4 100.0
08/22/2020 04:00 1294.50 0.0 0.00 -- 57.0 100.0
08/22/2020 03:00 1294.50 0.0 0.00 -- 57.9 100.0
08/22/2020 02:00 1294.50 0.0 0.00 -- 58.2 100.0
08/22/2020 01:00 1294.50 0.0 0.00 -- 58.7 100.0
08/22/2020 00:00 1294.50 0.0 0.00 0.11 59.5 100.0
08/21/2020 23:00 1294.50 0.0 0.00 -- 60.5 100.0
08/21/2020 22:00 1294.50 0.0 0.00 -- 61.6 100.0
08/21/2020 21:00 1294.50 0.0 0.00 -- 64.9 100.0
08/21/2020 20:00 1294.49 0.0 0.00 -- 67.3 100.0
08/21/2020 19:00 1294.55 0.0 0.00 -- 71.1 100.0
08/21/2020 18:00 1294.49 0.0 0.00 -- 81.0 100.0
08/21/2020 17:00 1294.49 0.0 0.00 -- 82.5 100.0
08/21/2020 16:00 1294.48 0.0 0.00 -- 81.4 100.0
08/21/2020 15:00 1294.48 0.0 0.00 -- 79.4 100.0
08/21/2020 14:00 1294.49 0.0 0.00 -- 77.6 100.0
08/21/2020 13:00 1294.49 0.0 0.00 -- 75.4 100.0
08/21/2020 12:00 1294.48 0.0 0.00 -- 73.3 100.0
08/21/2020 11:00 1294.49 0.0 0.00 -- 68.1 100.0
08/21/2020 10:00 1294.49 0.0 0.00 -- 63.1 100.0
08/21/2020 09:00 1294.48 0.0 0.00 -- 59.7 100.0
08/21/2020 08:00 1294.49 0.0 0.00 -- 58.8 100.0
08/21/2020 07:00 1294.49 0.0 0.00 -- 57.9 100.0
08/21/2020 06:00 1294.50 0.0 0.00 -- 53.5 100.0
08/21/2020 05:00 1294.50 0.0 0.00 -- 54.5 100.0
08/21/2020 04:00 1294.51 0.0 0.00 -- 54.3 100.0
08/21/2020 03:00 1294.51 0.0 0.00 -- 52.2 100.0
08/21/2020 02:00 1294.51 0.0 0.00 -- 52.2 100.0
08/21/2020 01:00 1294.51 0.0 0.00 -- 53.4 100.0
08/21/2020 00:00 1294.51 0.0 0.00 0.00 53.3 100.0
08/20/2020 23:00 1294.51 0.0 0.00 -- 55.6 100.0
08/20/2020 22:00 1294.51 0.0 0.00 -- 57.4 100.0
08/20/2020 21:00 1294.51 0.0 0.00 -- 61.2 100.0
08/20/2020 20:00 1294.51 0.0 0.00 -- 69.1 100.0
08/20/2020 19:00 1294.51 0.0 0.00 -- 70.7 100.0
08/20/2020 18:00 1294.52 0.0 0.00 -- 72.4 100.0
08/20/2020 17:00 1294.51 0.0 0.00 -- 74.2 100.0
08/20/2020 16:00 1294.52 0.0 0.00 -- 72.8 100.0
08/20/2020 15:00 1294.53 0.0 0.00 -- 72.1 100.0
08/20/2020 14:00 1294.52 0.0 0.00 -- 68.8 100.0
08/20/2020 13:00 1294.54 0.0 0.00 -- 67.2 100.0
08/20/2020 12:00 1294.52 0.0 0.00 -- 66.2 100.0
08/20/2020 11:00 1294.52 0.0 0.00 -- 62.1 100.0
08/20/2020 10:00 1294.52 0.0 0.00 -- 58.6 100.0
08/20/2020 09:00 1294.52 0.0 0.00 -- 50.0 100.0
08/20/2020 08:00 1294.52 0.0 0.00 -- 46.3 100.0
08/20/2020 07:00 1294.53 0.0 0.00 -- 46.6 100.0
08/20/2020 06:00 1294.53 0.0 0.00 -- 47.0 100.0
08/20/2020 05:00 1294.53 0.0 0.00 -- 48.1 100.0
08/20/2020 04:00 1294.53 0.0 0.00 -- 48.9 100.0
08/20/2020 03:00 1294.53 0.0 0.00 -- 50.2 100.0
08/20/2020 02:00 1294.53 0.0 0.00 -- 52.9 100.0
08/20/2020 01:00 1294.53 0.0 0.00 -- 53.9 100.0
08/20/2020 00:00 1294.53 0.0 0.00 0.00 52.8 100.0
08/19/2020 23:00 1294.53 0.0 0.00 -- 54.2 100.0
08/19/2020 22:00 1294.53 0.0 0.00 -- 55.7 100.0
08/19/2020 21:00 1294.53 0.0 0.00 -- 58.4 100.0
08/19/2020 20:00 1294.53 0.0 0.00 -- 64.1 100.0
08/19/2020 19:00 1294.54 0.0 0.00 -- 64.8 100.0
08/19/2020 18:00 1294.55 0.0 0.00 -- 66.0 100.0
08/19/2020 17:00 1294.53 0.0 0.02 -- 62.3 100.0
08/19/2020 16:00 1294.54 0.0 0.00 -- 71.1 100.0
08/19/2020 15:00 1294.52 0.0 0.00 -- 73.4 100.0
08/19/2020 14:00 1294.53 0.0 0.00 -- 72.1 100.0
08/19/2020 13:00 1294.53 0.0 0.00 -- 70.0 100.0
08/19/2020 12:00 1294.53 0.0 0.00 -- 70.3 100.0
08/19/2020 11:00 1294.53 0.0 0.00 -- 66.5 100.0
08/19/2020 10:00 1294.53 0.0 0.00 -- 63.4 100.0
08/19/2020 09:00 1294.52 0.0 0.00 -- 55.4 100.0
08/19/2020 08:00 1294.52 0.0 0.00 -- 54.1 100.0
08/19/2020 07:00 1294.53 0.0 0.00 -- 52.3 100.0
08/19/2020 06:00 1294.53 0.0 0.00 -- 51.6 100.0
08/19/2020 05:00 1294.53 0.0 0.00 -- 51.1 100.0
08/19/2020 04:00 1294.53 0.0 0.00 -- 52.3 100.0
08/19/2020 03:00 1294.53 0.0 0.00 -- 53.0 100.0
08/19/2020 02:00 1294.53 0.0 0.00 -- 53.7 100.0
08/19/2020 01:00 1294.53 0.0 0.00 -- 54.5 100.0
08/19/2020 00:00 1294.54 0.0 0.00 0.02 55.9 100.0
08/18/2020 23:00 1294.53 0.0 0.00 -- 57.1 100.0
08/18/2020 22:00 1294.53 0.0 0.00 -- 59.3 100.0
08/18/2020 21:00 1294.53 0.0 0.00 -- 61.6 100.0
08/18/2020 20:00 1294.54 0.0 0.00 -- 67.1 100.0
08/18/2020 19:00 1294.53 0.0 0.00 -- 66.4 100.0
08/18/2020 18:00 1294.56 0.0 0.00 -- 71.6 100.0
08/18/2020 17:00 1294.53 0.0 0.00 -- 76.5 100.0
08/18/2020 16:00 1294.54 0.0 0.00 -- 75.1 100.0
08/18/2020 15:00 1294.53 0.0 0.00 -- 75.2 100.0
08/18/2020 14:00 1294.53 0.0 0.00 -- 74.5 100.0
08/18/2020 13:00 1294.55 0.0 0.00 -- 73.6 100.0
08/18/2020 12:00 1294.54 0.0 0.00 -- 71.2 100.0
08/18/2020 11:00 1294.52 0.0 0.00 -- 68.2 100.0
08/18/2020 10:00 1294.54 0.0 0.00 -- 65.0 100.0
08/18/2020 09:00 1294.54 0.0 0.00 -- 62.9 100.0
08/18/2020 08:00 1294.54 0.0 0.00 -- 61.7 100.0
08/18/2020 07:00 1294.54 0.0 0.00 -- 61.2 100.0
08/18/2020 06:00 1294.54 0.0 0.00 -- 62.4 100.0
08/18/2020 05:00 1294.54 0.0 0.00 -- 63.1 100.0
08/18/2020 04:00 1294.54 0.0 0.00 -- 63.5 100.0
08/18/2020 03:00 1294.53 0.0 0.02 -- 63.7 100.0
08/18/2020 02:00 1294.54 0.0 0.00 -- 65.1 100.0
08/18/2020 01:00 1294.54 0.0 0.00 -- 64.2 100.0
08/18/2020 00:00 1294.54 0.0 0.00 0.02 64.0 100.0
08/17/2020 23:00 1294.54 0.0 0.00 -- 63.6 100.0
08/17/2020 22:00 1294.54 0.0 0.00 -- 65.2 100.0
08/17/2020 21:00 1294.55 0.0 0.00 -- 67.4 100.0
08/17/2020 20:00 1294.55 0.0 0.00 -- 73.0 100.0
08/17/2020 19:00 1294.53 0.0 0.00 -- 73.5 100.0
08/17/2020 18:00 1294.54 0.0 0.00 -- 75.9 100.0
08/17/2020 17:00 1294.54 0.0 0.00 -- 75.2 100.0
08/17/2020 16:00 1294.54 0.0 0.00 -- 77.2 100.0
08/17/2020 15:00 1294.55 0.0 0.00 -- 76.3 100.0
08/17/2020 14:00 1294.54 0.0 0.00 -- 73.5 100.0
08/17/2020 13:00 1294.55 0.0 0.00 -- 72.5 100.0
08/17/2020 12:00 1294.55 0.0 0.00 -- 71.7 100.0
08/17/2020 11:00 1294.55 0.0 0.00 -- 66.6 100.0
08/17/2020 10:00 1294.55 0.0 0.00 -- 62.6 100.0
08/17/2020 09:00 1294.55 0.0 0.00 -- 59.9 100.0
08/17/2020 08:00 1294.56 0.0 0.00 -- 59.0 100.0
08/17/2020 07:00 1294.55 0.0 0.00 -- 57.7 100.0
08/17/2020 06:00 1294.55 0.0 0.00 -- 59.1 100.0
08/17/2020 05:00 1294.56 0.0 0.00 -- 59.0 100.0
08/17/2020 04:00 1294.56 0.0 0.00 -- 59.2 100.0
08/17/2020 03:00 1294.56 0.0 0.00 -- 59.1 100.0
08/17/2020 02:00 1294.56 0.0 0.00 -- 59.2 100.0
08/17/2020 01:00 1294.56 0.0 0.00 -- 60.4 100.0
08/17/2020 00:00 1294.56 0.0 0.00 0.00 60.6 100.0
08/16/2020 23:00 1294.56 0.0 0.00 -- 60.9 100.0
08/16/2020 22:00 1294.56 0.0 0.00 -- 61.7 100.0
08/16/2020 21:00 1294.57 0.0 0.00 -- 62.4 100.0
08/16/2020 20:00 1294.56 0.0 0.00 -- 63.9 100.0
08/16/2020 19:00 1294.57 0.0 0.00 -- 64.7 100.0
08/16/2020 18:00 1294.56 0.0 0.00 -- 64.5 100.0
08/16/2020 17:00 1294.56 0.0 0.00 -- 66.8 100.0
08/16/2020 16:00 1294.57 0.0 0.00 -- 66.6 100.0
08/16/2020 15:00 1294.57 0.0 0.00 -- 67.6 100.0
08/16/2020 14:00 1294.58 0.0 0.00 -- 65.2 100.0
08/16/2020 13:00 1294.58 0.0 0.00 -- 64.2 100.0
08/16/2020 12:00 1294.57 0.0 0.00 -- 63.3 100.0
08/16/2020 11:00 1294.57 0.0 0.00 -- 62.0 100.0
08/16/2020 10:00 1294.58 0.0 0.00 -- 61.9 100.0
08/16/2020 09:00 1294.58 0.0 0.00 -- 60.5 100.0
08/16/2020 08:00 1294.57 0.0 0.00 -- 59.0 100.0
08/16/2020 07:00 1294.57 0.0 0.00 -- 57.1 100.0
08/16/2020 06:00 1294.57 0.0 0.00 -- 55.9 100.0
08/16/2020 05:00 1294.57 0.0 0.00 -- 55.7 100.0
08/16/2020 04:00 1294.58 0.0 0.00 -- 55.1 100.0
08/16/2020 03:00 1294.57 0.0 0.00 -- 55.3 100.0
08/16/2020 02:00 1294.57 0.0 0.00 -- 56.3 100.0
08/16/2020 01:00 1294.57 0.0 0.00 -- 57.3 100.0
08/16/2020 00:00 1294.57 0.0 0.00 0.00 59.2 100.0
08/15/2020 23:00 1294.57 0.0 0.00 -- 60.2 100.0
08/15/2020 22:00 1294.57 0.0 0.00 -- 60.6 100.0
08/15/2020 21:00 1294.57 0.0 0.00 -- 63.1 100.0
08/15/2020 20:00 1294.57 0.0 0.00 -- 66.8 100.0
08/15/2020 19:00 1294.58 0.0 0.00 -- 68.3 100.0
08/15/2020 18:00 1294.59 0.0 0.00 -- 68.8 100.0
08/15/2020 17:00 1294.58 0.0 0.00 -- 68.4 100.0
08/15/2020 16:00 1294.58 0.0 0.00 -- 68.9 100.0
08/15/2020 15:00 1294.59 0.0 0.00 -- 67.4 100.0
08/15/2020 14:00 1294.59 0.0 0.00 -- 66.9 100.0
08/15/2020 13:00 1294.59 0.0 0.00 -- 67.3 100.0
08/15/2020 12:00 1294.59 0.0 0.00 -- 66.2 100.0
08/15/2020 11:00 1294.58 0.0 0.00 -- 64.9 100.0
08/15/2020 10:00 1294.59 0.0 0.00 -- 65.4 100.0
08/15/2020 09:00 1294.60 0.0 0.00 -- 61.4 100.0
08/15/2020 08:00 1294.58 0.0 0.00 -- 57.5 100.0
08/15/2020 07:00 1294.59 0.0 0.00 -- 56.3 100.0
08/15/2020 06:00 1294.59 0.0 0.00 -- 54.7 100.0
08/15/2020 05:00 1294.59 0.0 0.00 -- 55.6 100.0
08/15/2020 04:00 1294.59 0.0 0.00 -- 56.2 100.0
08/15/2020 03:00 1294.59 0.0 0.00 -- 57.4 100.0
08/15/2020 02:00 1294.59 0.0 0.00 -- 58.1 100.0
08/15/2020 01:00 1294.59 0.0 0.00 -- 59.6 100.0
08/15/2020 00:00 1294.59 0.0 0.00 0.00 61.6 100.0
08/14/2020 23:00 1294.59 0.0 0.00 -- 63.8 100.0
08/14/2020 22:00 1294.59 0.0 0.00 -- 66.8 100.0
08/14/2020 21:00 1294.59 0.0 0.00 -- 69.3 100.0
08/14/2020 20:00 1294.60 0.0 0.00 -- 74.1 100.0
08/14/2020 19:00 1294.59 0.0 0.00 -- 78.1 100.0
08/14/2020 18:00 1294.60 0.0 0.00 -- 79.0 100.0
08/14/2020 17:00 1294.61 0.0 0.00 -- 80.1 100.0
08/14/2020 16:00 1294.61 2.0 0.00 -- 78.5 100.0
08/14/2020 15:00 1294.59 0.0 0.00 -- 82.6 100.0
08/14/2020 14:00 1294.60 0.0 0.00 -- 79.2 100.0
08/14/2020 13:00 1294.61 0.0 0.00 -- 78.5 100.0
08/14/2020 12:00 1294.60 0.0 0.00 -- 78.0 100.0
08/14/2020 11:00 1294.61 0.0 0.00 -- 75.5 100.0
08/14/2020 10:00 1294.60 0.0 0.00 -- 68.9 100.0
08/14/2020 09:00 1294.60 0.0 0.00 -- 61.3 100.0
08/14/2020 08:00 1294.60 0.0 0.00 -- 58.5 100.0
08/14/2020 07:00 1294.60 0.0 0.00 -- 57.7 100.0
08/14/2020 06:00 1294.60 0.0 0.00 -- 57.9 100.0
08/14/2020 05:00 1294.60 0.0 0.00 -- 58.3 100.0
08/14/2020 04:00 1294.60 0.0 0.00 -- 60.1 100.0
08/14/2020 03:00 1294.60 0.0 0.00 -- 61.3 100.0
08/14/2020 02:00 1294.60 0.0 0.00 -- 62.3 100.0
08/14/2020 01:00 1294.60 0.0 0.00 -- 63.7 100.0
08/14/2020 00:00 1294.60 0.0 0.00 0.00 64.3 100.0
08/13/2020 23:00 1294.61 0.0 0.00 -- 65.5 100.0
08/13/2020 22:00 1294.61 0.0 0.00 -- 67.5 100.0
08/13/2020 21:00 1294.61 0.0 0.00 -- 71.2 100.0
08/13/2020 20:00 1294.61 0.0 0.00 -- 76.8 100.0
08/13/2020 19:00 1294.61 0.0 0.00 -- 80.4 100.0
08/13/2020 18:00 1294.62 0.0 0.00 -- 81.9 100.0
08/13/2020 17:00 1294.62 0.0 0.00 -- 80.5 100.0
08/13/2020 16:00 1294.61 1.0 0.00 -- 82.2 100.0
08/13/2020 15:00 1294.63 0.0 0.00 -- 81.4 100.0
08/13/2020 14:00 1294.62 1.0 0.00 -- 79.7 100.0
08/13/2020 13:00 1294.62 1.0 0.00 -- 81.0 100.0
08/13/2020 12:00 1294.62 1.0 0.00 -- 79.8 100.0
08/13/2020 11:00 1294.62 0.0 0.00 -- 76.9 100.0
08/13/2020 10:00 1294.61 1.0 0.00 -- 69.7 100.0
08/13/2020 09:00 1294.61 0.0 0.00 -- 60.7 100.0
08/13/2020 08:00 1294.62 0.0 0.00 -- 57.2 100.0
08/13/2020 07:00 1294.62 1.0 0.00 -- 56.1 100.0
08/13/2020 06:00 1294.61 1.0 0.00 -- 56.5 100.0
08/13/2020 05:00 1294.62 1.0 0.00 -- 57.6 100.0
08/13/2020 04:00 1294.62 1.0 0.00 -- 58.6 100.0
08/13/2020 03:00 1294.62 1.0 0.00 -- 60.1 100.0
08/13/2020 02:00 1294.62 1.0 0.00 -- 61.7 100.0
08/13/2020 01:00 1294.62 1.0 0.00 -- 64.9 100.0
08/13/2020 00:00 1294.62 1.0 0.00 0.00 64.1 100.0
08/12/2020 23:00 1294.62 1.0 0.00 -- 67.4 100.0
08/12/2020 22:00 1294.62 1.0 0.00 -- 68.9 100.0
08/12/2020 21:00 1294.62 1.0 0.00 -- 71.9 100.0
08/12/2020 20:00 1294.63 1.0 0.00 -- 78.1 100.0
08/12/2020 19:00 1294.63 1.0 0.00 -- 82.5 100.0
08/12/2020 18:00 1294.64 1.0 0.00 -- 84.4 100.0
08/12/2020 17:00 1294.64 1.0 0.00 -- 85.7 100.0
08/12/2020 16:00 1294.63 1.0 0.00 -- 84.5 100.0
08/12/2020 15:00 1294.64 2.0 0.00 -- 83.3 100.0
08/12/2020 14:00 1294.63 2.0 0.00 -- 81.6 100.0
08/12/2020 13:00 1294.63 1.0 0.00 -- 79.8 100.0
08/12/2020 12:00 1294.63 2.0 0.00 -- 80.4 100.0
08/12/2020 11:00 1294.63 1.0 0.00 -- 77.1 100.0
08/12/2020 10:00 1294.63 2.0 0.00 -- 72.6 100.0
08/12/2020 09:00 1294.63 1.0 0.00 -- 69.7 100.0
08/12/2020 08:00 1294.62 1.0 0.00 -- 67.7 100.0
08/12/2020 07:00 1294.62 1.0 0.00 -- 67.0 100.0
08/12/2020 06:00 1294.63 1.0 0.00 -- 68.1 100.0
08/12/2020 05:00 1294.62 1.0 0.00 -- 69.2 100.0
08/12/2020 04:00 1294.62 1.0 0.00 -- 69.5 100.0
08/12/2020 03:00 1294.62 0.0 0.01 -- 70.3 100.0
08/12/2020 02:00 1294.61 1.0 0.00 -- 73.1 100.0
08/12/2020 01:00 1294.61 0.0 0.00 -- 73.7 100.0
08/12/2020 00:00 1294.60 1.0 0.00 0.01 74.5 100.0
08/11/2020 23:00 1294.61 0.0 0.00 -- 76.1 100.0
08/11/2020 22:00 1294.61 0.0 0.00 -- 77.5 100.0
08/11/2020 21:00 1294.62 0.0 0.00 -- 78.5 100.0
08/11/2020 20:00 1294.64 1.0 0.00 -- 80.2 100.0
08/11/2020 19:00 1294.62 1.0 0.00 -- 84.7 100.0
08/11/2020 18:00 1294.61 1.0 0.00 -- 86.8 100.0
08/11/2020 17:00 1294.61 0.0 0.00 -- 87.5 100.0
08/11/2020 16:00 1294.62 0.0 0.00 -- 88.2 100.0
08/11/2020 15:00 1294.62 0.0 0.00 -- 87.0 100.0
08/11/2020 14:00 1294.61 1.0 0.00 -- 86.0 100.0
08/11/2020 13:00 1294.63 0.0 0.00 -- 82.9 100.0
08/11/2020 12:00 1294.63 1.0 0.00 -- 82.0 100.0
08/11/2020 11:00 1294.64 2.0 0.00 -- 80.4 100.0
08/11/2020 10:00 1294.64 1.0 0.00 -- 74.8 100.0
08/11/2020 09:00 1294.63 2.0 0.00 -- 71.5 100.0
08/11/2020 08:00 1294.64 2.0 0.00 -- 65.9 100.0
08/11/2020 07:00 1294.64 2.0 0.00 -- 64.8 100.0
08/11/2020 06:00 1294.64 2.0 0.00 -- 65.1 100.0
08/11/2020 05:00 1294.64 2.0 0.00 -- 65.3 100.0
08/11/2020 04:00 1294.64 2.0 0.00 -- 65.2 100.0
08/11/2020 03:00 1294.64 2.0 0.00 -- 65.6 100.0
08/11/2020 02:00 1294.64 2.0 0.00 -- 66.3 100.0
08/11/2020 01:00 1294.64 2.0 0.00 -- 67.5 100.0
08/11/2020 00:00 1294.64 2.0 0.00 0.00 68.6 100.0
08/10/2020 23:00 1294.64 2.0 0.00 -- 70.9 100.0
08/10/2020 22:00 1294.65 2.0 0.00 -- 74.6 100.0
08/10/2020 21:00 1294.65 3.0 0.00 -- 74.7 100.0
08/10/2020 20:00 1294.65 3.0 0.00 -- 76.7 100.0
08/10/2020 19:00 1294.65 3.0 0.00 -- 81.5 100.0
08/10/2020 18:00 1294.65 2.0 0.00 -- 85.6 100.0
08/10/2020 17:00 1294.65 2.0 0.00 -- 83.9 100.0
08/10/2020 16:00 1294.64 3.0 0.00 -- 85.0 100.0
08/10/2020 15:00 1294.64 2.0 0.00 -- 83.4 100.0
08/10/2020 14:00 1294.64 3.0 0.00 -- 80.8 100.0
08/10/2020 13:00 1294.65 2.0 0.00 -- 81.2 100.0
08/10/2020 12:00 1294.64 3.0 0.00 -- 80.9 100.0
08/10/2020 11:00 1294.65 2.0 0.00 -- 78.6 100.0
08/10/2020 10:00 1294.65 3.0 0.00 -- 73.1 100.0
08/10/2020 09:00 1294.65 3.0 0.00 -- 67.0 100.0
08/10/2020 08:00 1294.65 3.0 0.00 -- 65.0 100.0
08/10/2020 07:00 1294.65 3.0 0.00 -- 65.0 100.0
08/10/2020 06:00 1294.65 3.0 0.00 -- 62.9 100.0
08/10/2020 05:00 1294.65 3.0 0.00 -- 63.0 100.0
08/10/2020 04:00 1294.65 3.0 0.00 -- 63.4 100.0
08/10/2020 03:00 1294.65 3.0 0.00 -- 63.9 100.0
08/10/2020 02:00 1294.65 3.0 0.00 -- 64.4 100.0
08/10/2020 01:00 1294.66 3.0 0.00 -- 65.0 100.0
08/10/2020 00:00 1294.66 3.0 0.00 0.00 66.1 100.0
08/09/2020 23:00 1294.66 3.0 0.00 -- 67.5 100.0
08/09/2020 22:00 1294.66 4.0 0.00 -- 69.3 100.0
08/09/2020 21:00 1294.66 4.0 0.00 -- 72.4 100.0
08/09/2020 20:00 1294.66 4.0 0.00 -- 76.6 100.0
08/09/2020 19:00 1294.66 3.0 0.00 -- 79.3 100.0
08/09/2020 18:00 1294.64 -- 0.00 -- 82.5 100.0
08/09/2020 17:00 1294.64 2.0 0.00 -- 83.4 100.0
08/09/2020 16:00 1294.65 3.0 0.00 -- 82.4 100.0
08/09/2020 15:00 1294.65 3.0 0.00 -- 80.8 100.0
08/09/2020 14:00 1294.65 3.0 0.00 -- 79.8 100.0
08/09/2020 13:00 1294.66 4.0 0.00 -- 80.2 100.0
08/09/2020 12:00 1294.66 4.0 0.00 -- 77.7 100.0
08/09/2020 11:00 1294.65 3.0 0.00 -- 71.0 100.0
08/09/2020 10:00 1294.65 3.0 0.00 -- 66.5 100.0
08/09/2020 09:00 1294.66 3.0 0.00 -- 64.6 100.0
08/09/2020 08:00 1294.66 3.0 0.00 -- 64.3 100.0
08/09/2020 07:00 1294.66 4.0 0.00 -- 62.9 100.0
08/09/2020 06:00 1294.66 4.0 0.00 -- 61.9 100.0
08/09/2020 05:00 1294.66 4.0 0.00 -- 62.0 100.0
08/09/2020 04:00 1294.66 4.0 0.00 -- 62.1 100.0
08/09/2020 03:00 1294.66 4.0 0.00 -- 62.6 100.0
08/09/2020 02:00 1294.67 4.0 0.00 -- 62.5 100.0
08/09/2020 01:00 1294.66 4.0 0.00 -- 62.5 100.0
08/09/2020 00:00 1294.67 4.0 0.00 0.00 63.2 100.0
08/08/2020 23:00 1294.67 4.0 0.00 -- 64.9 100.0
08/08/2020 22:00 1294.67 5.0 0.00 -- 66.0 100.0
08/08/2020 21:00 1294.67 5.0 0.00 -- 68.6 100.0
08/08/2020 20:00 1294.67 5.0 0.00 -- 73.6 100.0
08/08/2020 19:00 1294.67 5.0 0.00 -- 73.4 100.0
08/08/2020 18:00 1294.67 5.0 0.00 -- 77.0 100.0
08/08/2020 17:00 1294.67 4.0 0.00 -- 77.1 100.0
08/08/2020 16:00 1294.67 4.0 0.00 -- 79.7 100.0
08/08/2020 15:00 1294.66 5.0 0.00 -- 79.3 100.0
08/08/2020 14:00 1294.67 5.0 0.00 -- 77.6 100.0
08/08/2020 13:00 1294.68 5.0 0.00 -- 74.0 100.0
08/08/2020 12:00 1294.69 5.0 0.01 -- 67.7 100.0
08/08/2020 11:00 1294.67 7.0 0.00 -- 64.0 100.0
08/08/2020 10:00 1294.67 4.0 0.00 -- 63.8 100.0
08/08/2020 09:00 1294.68 5.0 0.01 -- 62.9 100.0
08/08/2020 08:00 1294.68 5.0 0.00 -- 62.6 100.0
08/08/2020 07:00 1294.68 4.0 0.00 -- 62.2 100.0
08/08/2020 06:00 1294.66 5.0 0.00 -- 62.0 100.0
08/08/2020 05:00 1294.67 4.0 0.00 -- 62.4 100.0
08/08/2020 04:00 1294.67 4.0 0.00 -- 62.0 100.0
08/08/2020 03:00 1294.66 4.0 0.00 -- 62.2 100.0
08/08/2020 02:00 1294.67 4.0 0.00 -- 62.4 100.0
08/08/2020 01:00 1294.67 4.0 0.00 -- 63.1 100.0
08/08/2020 00:00 1294.67 4.0 0.00 0.02 63.6 100.0
08/07/2020 23:00 1294.67 4.0 0.00 -- 63.5 100.0
08/07/2020 22:00 1294.67 4.0 0.00 -- 64.7 100.0
08/07/2020 21:00 1294.67 4.0 0.00 -- 67.0 100.0
08/07/2020 20:00 1294.66 4.0 0.00 -- 71.6 100.0
08/07/2020 19:00 1294.67 4.0 0.00 -- 73.7 100.0
08/07/2020 18:00 1294.66 5.0 0.00 -- 77.4 100.0
08/07/2020 17:00 1294.66 4.0 0.00 -- 76.5 100.0
08/07/2020 16:00 1294.67 4.0 0.00 -- 76.1 100.0
08/07/2020 15:00 1294.67 4.0 0.00 -- 77.9 100.0
08/07/2020 14:00 1294.67 4.0 0.00 -- 75.9 100.0
08/07/2020 13:00 1294.67 5.0 0.00 -- 71.2 100.0
08/07/2020 12:00 1294.67 5.0 0.00 -- 68.3 100.0
08/07/2020 11:00 1294.67 4.0 0.00 -- 72.2 100.0
08/07/2020 10:00 1294.67 5.0 0.00 -- 62.2 100.0
08/07/2020 09:00 1294.68 5.0 0.00 -- 58.5 100.0
08/07/2020 08:00 1294.67 5.0 0.00 -- 54.1 100.0
08/07/2020 07:00 1294.67 6.0 0.00 -- 52.8 100.0
08/07/2020 06:00 1294.68 5.0 0.00 -- 52.8 100.0
08/07/2020 05:00 1294.68 5.0 0.00 -- 52.3 100.0
08/07/2020 04:00 1294.68 5.0 0.00 -- 52.5 100.0
08/07/2020 03:00 1294.68 5.0 0.00 -- 52.4 100.0
08/07/2020 02:00 1294.68 6.0 0.00 -- 53.3 100.0
08/07/2020 01:00 1294.68 6.0 0.00 -- 54.6 100.0
08/07/2020 00:00 1294.68 6.0 0.00 0.00 55.2 100.0
08/06/2020 23:00 1294.68 6.0 0.00 -- 57.2 100.0
08/06/2020 22:00 1294.68 6.0 0.00 -- 59.1 100.0
08/06/2020 21:00 1294.68 6.0 0.00 -- 64.1 100.0
08/06/2020 20:00 1294.68 6.0 0.00 -- 70.8 100.0
08/06/2020 19:00 1294.68 6.0 0.00 -- 73.7 100.0
08/06/2020 18:00 1294.68 6.0 0.00 -- 75.3 100.0
08/06/2020 17:00 1294.68 6.0 0.00 -- 74.7 100.0
08/06/2020 16:00 1294.68 6.0 0.00 -- 73.9 100.0
08/06/2020 15:00 1294.68 6.0 0.00 -- 72.7 100.0
08/06/2020 14:00 1294.68 5.0 0.00 -- 69.3 100.0
08/06/2020 13:00 1294.68 6.0 0.00 -- 69.1 100.0
08/06/2020 12:00 1294.68 6.0 0.00 -- 67.0 100.0
08/06/2020 11:00 1294.68 6.0 0.00 -- 68.5 100.0
08/06/2020 10:00 1294.69 8.0 0.00 -- 66.0 100.0
08/06/2020 09:00 1294.69 7.0 0.00 -- 65.1 100.0
08/06/2020 08:00 1294.69 7.0 0.00 -- 57.1 100.0
08/06/2020 07:00 1294.69 7.0 0.00 -- 51.9 100.0
08/06/2020 06:00 1294.69 6.0 0.00 -- 52.2 100.0
08/06/2020 05:00 1294.69 7.0 0.00 -- 52.7 100.0
08/06/2020 04:00 1294.69 7.0 0.00 -- 53.0 100.0
08/06/2020 03:00 1294.69 7.0 0.00 -- 53.5 100.0
08/06/2020 02:00 1294.69 7.0 0.00 -- 55.1 100.0
08/06/2020 01:00 1294.70 7.0 0.00 -- 56.7 100.0
08/06/2020 00:00 1294.70 8.0 0.00 0.00 57.7 100.0
08/05/2020 23:00 1294.70 8.0 0.00 -- 63.1 100.0
08/05/2020 22:00 1294.70 8.0 0.00 -- 63.5 100.0
08/05/2020 21:00 1294.70 8.0 0.00 -- 68.7 100.0
08/05/2020 20:00 1294.70 8.0 0.00 -- 73.4 100.0
08/05/2020 19:00 1294.70 7.0 0.00 -- 74.4 100.0
08/05/2020 18:00 1294.70 7.0 0.00 -- 78.0 100.0
08/05/2020 17:00 1294.69 8.0 0.00 -- 78.5 100.0
08/05/2020 16:00 1294.69 7.0 0.00 -- 77.3 100.0
08/05/2020 15:00 1294.71 6.0 0.00 -- 78.9 100.0
08/05/2020 14:00 1294.68 6.0 0.00 -- 77.1 100.0
08/05/2020 13:00 1294.69 7.0 0.00 -- 73.2 100.0
08/05/2020 12:00 1294.69 7.0 0.00 -- 73.0 100.0
08/05/2020 11:00 1294.69 7.0 0.00 -- 72.7 100.0
08/05/2020 10:00 1294.69 6.0 0.00 -- 67.8 100.0
08/05/2020 09:00 1294.69 7.0 0.00 -- 65.2 100.0
08/05/2020 08:00 1294.69 6.0 0.00 -- 63.7 100.0
08/05/2020 07:00 1294.69 7.0 0.00 -- 62.6 100.0
08/05/2020 06:00 1294.69 7.0 0.00 -- 61.9 100.0
08/05/2020 05:00 1294.70 7.0 0.00 -- 62.1 100.0
08/05/2020 04:00 1294.69 7.0 0.00 -- 63.2 100.0
08/05/2020 03:00 1294.68 7.0 0.00 -- 63.8 100.0
08/05/2020 02:00 1294.68 5.0 0.00 -- 64.1 100.0
08/05/2020 01:00 1294.69 5.0 0.00 -- 64.8 100.0
08/05/2020 00:00 1294.65 5.0 0.00 0.00 65.2 100.0
08/04/2020 23:00 1294.63 2.0 0.00 -- 66.4 100.0
08/04/2020 22:00 1294.64 0.0 0.01 -- 66.1 100.0
08/04/2020 21:00 1294.64 2.0 0.00 -- 65.8 100.0
08/04/2020 20:00 1294.62 6.0 0.06 -- 67.3 100.0
08/04/2020 19:00 1294.68 1.0 0.18 -- 69.8 100.0
08/04/2020 18:00 1294.67 2.0 0.26 -- 70.1 100.0
08/04/2020 17:00 1294.65 3.0 0.15 -- 69.6 100.0
08/04/2020 16:00 1294.62 1.0 0.22 -- 68.5 100.0
08/04/2020 15:00 1294.61 4.0 0.00 -- 69.3 100.0
08/04/2020 14:00 1294.60 0.0 0.00 -- 69.2 100.0
08/04/2020 13:00 1294.59 0.0 0.00 -- 68.7 100.0
08/04/2020 12:00 1294.61 0.0 0.00 -- 69.0 100.0
08/04/2020 11:00 1294.60 0.0 0.00 -- 68.5 100.0
08/04/2020 10:00 1294.59 0.0 0.00 -- 67.9 100.0
08/04/2020 09:00 1294.59 0.0 0.00 -- 66.1 100.0
08/04/2020 08:00 1294.59 0.0 0.00 -- 63.8 100.0
08/04/2020 07:00 1294.60 0.0 0.00 -- 63.5 100.0
08/04/2020 06:00 1294.59 0.0 0.00 -- 64.0 100.0
08/04/2020 05:00 1294.58 0.0 0.00 -- 63.7 100.0
08/04/2020 04:00 1294.60 0.0 0.00 -- 64.1 100.0
08/04/2020 03:00 1294.59 0.0 0.00 -- 63.4 100.0
08/04/2020 02:00 1294.59 0.0 0.00 -- 63.5 100.0
08/04/2020 01:00 1294.59 0.0 0.00 -- 62.5 100.0
08/04/2020 00:00 1294.59 0.0 0.00 0.88 63.8 100.0
08/03/2020 23:00 1294.59 0.0 0.00 -- 65.2 100.0
08/03/2020 22:00 1294.59 0.0 0.00 -- 68.5 100.0
08/03/2020 21:00 1294.59 0.0 0.00 -- 72.9 100.0
08/03/2020 20:00 1294.59 0.0 0.00 -- 76.1 100.0
08/03/2020 19:00 1294.58 0.0 0.00 -- 77.3 100.0
08/03/2020 18:00 1294.57 0.0 0.00 -- 78.4 100.0
08/03/2020 17:00 1294.58 0.0 0.00 -- 78.8 100.0
08/03/2020 16:00 1294.59 0.0 0.00 -- 78.1 100.0
08/03/2020 15:00 1294.57 0.0 0.00 -- 77.1 100.0
08/03/2020 14:00 1294.59 0.0 0.00 -- 75.6 100.0
08/03/2020 13:00 1294.58 0.0 0.00 -- 75.1 100.0
08/03/2020 12:00 1294.59 0.0 0.00 -- 76.0 100.0
08/03/2020 11:00 1294.58 0.0 0.00 -- 72.8 100.0
08/03/2020 10:00 1294.57 0.0 0.00 -- 71.4 100.0
08/03/2020 09:00 1294.59 0.0 0.00 -- 70.0 100.0
08/03/2020 08:00 1294.59 0.0 0.00 -- 70.3 100.0
08/03/2020 07:00 1294.59 0.0 0.00 -- 70.5 100.0
08/03/2020 06:00 1294.58 0.0 0.00 -- 71.5 100.0
08/03/2020 05:00 1294.58 0.0 0.00 -- 72.7 100.0
08/03/2020 04:00 1294.58 0.0 0.00 -- 73.3 100.0
08/03/2020 03:00 1294.60 0.0 0.00 -- 73.0 100.0
08/03/2020 02:00 1294.60 0.0 0.00 -- 72.5 100.0
08/03/2020 01:00 1294.59 0.0 0.02 -- 72.8 100.0
08/03/2020 00:00 1294.59 0.0 0.00 0.02 73.9 100.0
08/02/2020 23:00 1294.60 0.0 0.00 -- 72.3 100.0
08/02/2020 22:00 1294.60 0.0 0.00 -- 71.6 100.0
08/02/2020 21:00 1294.60 0.0 0.00 -- 71.3 100.0
08/02/2020 20:00 1294.60 0.0 0.00 -- 71.1 100.0
08/02/2020 19:00 1294.60 0.0 0.00 -- 71.0 100.0
08/02/2020 18:00 1294.60 0.0 0.00 -- 71.5 100.0
08/02/2020 17:00 1294.61 0.0 0.06 -- 71.1 100.0
08/02/2020 16:00 1294.59 0.0 0.00 -- 76.0 100.0
08/02/2020 15:00 1294.59 0.0 0.00 -- 77.6 100.0
08/02/2020 14:00 1294.59 0.0 0.01 -- 70.8 100.0
08/02/2020 13:00 1294.59 0.0 0.01 -- 67.5 100.0
08/02/2020 12:00 1294.59 0.0 0.00 -- 75.0 100.0
08/02/2020 11:00 1294.59 0.0 0.00 -- 74.5 100.0
08/02/2020 10:00 1294.60 0.0 0.00 -- 70.4 100.0
08/02/2020 09:00 1294.60 0.0 0.00 -- 66.3 100.0
08/02/2020 08:00 1294.60 0.0 0.00 -- 65.2 100.0
08/02/2020 07:00 1294.60 0.0 0.00 -- 63.5 100.0
08/02/2020 06:00 1294.61 0.0 0.00 -- 62.7 100.0
08/02/2020 05:00 1294.61 0.0 0.00 -- 62.6 100.0
08/02/2020 04:00 1294.61 0.0 0.00 -- 62.2 100.0
08/02/2020 03:00 1294.61 0.0 0.00 -- 61.4 100.0
08/02/2020 02:00 1294.61 0.0 0.00 -- 62.4 100.0
08/02/2020 01:00 1294.61 0.0 0.00 -- 63.6 100.0
08/02/2020 00:00 1294.61 0.0 0.00 0.08 64.5 100.0
08/01/2020 23:00 1294.61 0.0 0.00 -- 65.3 100.0
08/01/2020 22:00 1294.61 0.0 0.00 -- 68.1 100.0
08/01/2020 21:00 1294.61 0.0 0.00 -- 71.0 100.0
08/01/2020 20:00 1294.62 0.0 0.00 -- 74.5 100.0
08/01/2020 19:00 1294.62 0.0 0.00 -- 79.9 100.0
08/01/2020 18:00 1294.62 1.0 0.00 -- 82.8 100.0
08/01/2020 17:00 1294.62 1.0 0.00 -- 85.5 100.0
08/01/2020 16:00 1294.63 1.0 0.00 -- 83.2 100.0
08/01/2020 15:00 1294.62 1.0 0.00 -- 83.1 100.0
08/01/2020 14:00 1294.63 1.0 0.00 -- 80.3 100.0
08/01/2020 13:00 1294.63 1.0 0.00 -- 79.4 100.0
08/01/2020 12:00 1294.63 1.0 0.00 -- 80.0 100.0
08/01/2020 11:00 1294.63 1.0 0.00 -- 78.8 100.0
08/01/2020 10:00 1294.62 1.0 0.00 -- 73.2 100.0
08/01/2020 09:00 1294.62 1.0 0.00 -- 61.4 100.0
08/01/2020 08:00 1294.62 1.0 0.00 -- 58.2 100.0
08/01/2020 07:00 1294.63 1.0 0.00 -- 57.5 100.0
08/01/2020 06:00 1294.63 1.0 0.00 -- 58.4 100.0
08/01/2020 05:00 1294.63 1.0 0.00 -- 58.9 100.0
08/01/2020 04:00 1294.63 1.0 0.00 -- 60.6 100.0
08/01/2020 03:00 1294.63 1.0 0.00 -- 61.0 100.0
08/01/2020 02:00 1294.63 1.0 0.00 -- 63.5 100.0
08/01/2020 01:00 1294.63 1.0 0.00 -- 64.1 100.0
08/01/2020 00:00 1294.63 1.0 0.00 0.00 63.3 100.0
07/31/2020 23:00 1294.63 1.0 0.00 -- 65.2 100.0
07/31/2020 22:00 1294.63 1.0 0.00 -- 68.2 100.0
07/31/2020 21:00 1294.64 1.0 0.00 -- 71.7 100.0
07/31/2020 20:00 1294.64 1.0 0.00 -- 78.5 100.0
07/31/2020 19:00 1294.63 2.0 0.00 -- 80.5 100.0
07/31/2020 18:00 1294.64 2.0 0.00 -- 84.0 100.0
07/31/2020 17:00 1294.65 2.0 0.00 -- 83.9 100.0
07/31/2020 16:00 1294.65 2.0 0.00 -- 79.1 100.0
07/31/2020 15:00 1294.64 3.0 0.00 -- 82.3 100.0
07/31/2020 14:00 1294.65 2.0 0.00 -- 80.2 100.0
07/31/2020 13:00 1294.65 3.0 0.00 -- 78.6 100.0
07/31/2020 12:00 1294.65 2.0 0.00 -- 78.6 100.0
07/31/2020 11:00 1294.64 3.0 0.00 -- 77.7 100.0
07/31/2020 10:00 1294.65 3.0 0.00 -- 72.3 100.0
07/31/2020 09:00 1294.64 2.0 0.00 -- 61.6 100.0
07/31/2020 08:00 1294.64 2.0 0.00 -- 57.9 100.0
07/31/2020 07:00 1294.64 2.0 0.00 -- 57.1 100.0
07/31/2020 06:00 1294.64 2.0 0.00 -- 57.3 100.0
07/31/2020 05:00 1294.64 2.0 0.00 -- 57.0 100.0
07/31/2020 04:00 1294.64 2.0 0.00 -- 57.8 100.0
07/31/2020 03:00 1294.64 2.0 0.00 -- 59.0 100.0
07/31/2020 02:00 1294.64 2.0 0.00 -- 59.9 100.0
07/31/2020 01:00 1294.64 2.0 0.00 -- 61.5 100.0
07/31/2020 00:00 1294.64 2.0 0.00 0.00 64.5 100.0
07/30/2020 23:00 1294.65 3.0 0.00 -- 65.5 100.0
07/30/2020 22:00 1294.65 4.0 0.00 -- 66.6 100.0
07/30/2020 21:00 1294.64 2.0 0.00 -- 70.0 100.0
07/30/2020 20:00 1294.64 2.0 0.00 -- 76.2 100.0
07/30/2020 19:00 1294.64 2.0 0.00 -- 78.6 100.0
07/30/2020 18:00 1294.66 2.0 0.00 -- 78.9 100.0
07/30/2020 17:00 1294.63 3.0 0.00 -- 79.5 100.0
07/30/2020 16:00 -- -- -- -- 79.7 100.0
07/30/2020 15:00 -- -- -- -- 78.7 100.0
07/30/2020 14:00 -- -- -- -- 79.1 100.0
07/30/2020 13:00 -- -- -- -- 77.1 100.0
07/30/2020 12:00 -- -- -- -- 76.4 100.0
07/30/2020 11:00 -- -- -- -- 73.5 100.0
07/30/2020 10:00 -- -- -- -- 71.1 100.0
07/30/2020 09:00 -- -- -- -- 65.0 100.0
07/30/2020 08:00 -- -- -- -- 63.5 100.0
07/30/2020 07:00 -- -- -- -- 63.2 100.0
07/30/2020 06:00 -- -- -- -- 61.3 100.0
07/30/2020 05:00 -- -- -- -- 61.7 100.0
07/30/2020 04:00 -- -- -- -- 62.8 100.0
07/30/2020 03:00 -- -- -- -- 64.2 100.0
07/30/2020 02:00 -- -- -- -- 65.1 100.0
07/30/2020 01:00 -- -- -- -- 66.3 100.0
07/30/2020 00:00 -- -- -- 0.13 68.1 100.0